Time,TemperatureF,DewpointF,PressureIn,WindDirection,WindDirectionDegrees,WindSpeedMPH,WindSpeedGustMPH,Humidity,HourlyPrecipIn,Conditions,Clouds,dailyrainin,SoftwareType,DateUTC
2013-02-01 00:01:00,-10.8,-17.9,30.31,West,281,7.0,8.0,70,0.00,,,0.00,Wunderground v.1.13,2013-02-01 06:01:00,
2013-02-01 00:03:00,-10.8,-17.9,30.31,West,272,7.0,9.0,70,0.00,,,0.00,Wunderground v.1.13,2013-02-01 06:03:00,
2013-02-01 00:09:00,-10.9,-18.0,30.31,West,263,7.0,8.0,70,0.00,,,0.00,Wunderground v.1.13,2013-02-01 06:09:00,
2013-02-01 00:11:00,-11.0,-18.1,30.31,West,261,7.0,7.0,70,0.00,,,0.00,Wunderground v.1.13,2013-02-01 06:11:00,
2013-02-01 00:17:00,-11.1,-18.2,30.31,West,274,6.0,9.0,70,0.00,,,0.00,Wunderground v.1.13,2013-02-01 06:17:00,
2013-02-01 00:18:00,-11.1,-18.2,30.31,West,259,7.0,9.0,70,0.00,,,0.00,Wunderground v.1.13,2013-02-01 06:18:00,
2013-02-01 00:22:00,-11.1,-18.2,30.31,West,273,6.0,9.0,70,0.00,,,0.00,Wunderground v.1.13,2013-02-01 06:22:00,
2013-02-01 00:23:00,-11.2,-18.3,30.31,WSW,237,6.0,9.0,70,0.00,,,0.00,Wunderground v.1.13,2013-02-01 06:23:00,
2013-02-01 00:24:00,-11.2,-18.3,30.31,West,264,6.0,9.0,70,0.00,,,0.00,Wunderground v.1.13,2013-02-01 06:24:00,
2013-02-01 00:30:00,-11.2,-18.3,30.31,West,265,6.0,6.0,70,0.00,,,0.00,Wunderground v.1.13,2013-02-01 06:30:00,
2013-02-01 00:31:00,-11.2,-18.3,30.31,WSW,258,6.0,7.0,70,0.00,,,0.00,Wunderground v.1.13,2013-02-01 06:31:00,
2013-02-01 00:34:00,-11.2,-18.3,30.32,West,269,6.0,8.0,70,0.00,,,0.00,Wunderground v.1.13,2013-02-01 06:34:00,
2013-02-01 00:36:00,-11.3,-18.4,30.31,West,261,6.0,7.0,70,0.00,,,0.00,Wunderground v.1.13,2013-02-01 06:36:00,
2013-02-01 00:39:00,-11.3,-18.4,30.31,West,259,6.0,8.0,70,0.00,,,0.00,Wunderground v.1.13,2013-02-01 06:39:00,
2013-02-01 00:42:00,-11.4,-18.5,30.31,West,262,6.0,6.0,70,0.00,,,0.00,Wunderground v.1.13,2013-02-01 06:42:00,
2013-02-01 00:44:00,-11.4,-18.5,30.32,West,272,5.0,6.0,70,0.00,,,0.00,Wunderground v.1.13,2013-02-01 06:44:00,
2013-02-01 00:46:00,-11.4,-18.5,30.32,West,269,6.0,6.0,70,0.00,,,0.00,Wunderground v.1.13,2013-02-01 06:46:00,
2013-02-01 00:48:00,-11.4,-18.2,30.32,West,263,6.0,6.0,71,0.00,,,0.00,Wunderground v.1.13,2013-02-01 06:48:00,
2013-02-01 00:53:00,-11.5,-18.3,30.32,WSW,251,7.0,11.0,71,0.00,,,0.00,Wunderground v.1.13,2013-02-01 06:53:00,
2013-02-01 00:55:00,-11.5,-18.3,30.32,West,263,7.0,8.0,71,0.00,,,0.00,Wunderground v.1.13,2013-02-01 06:55:00,
2013-02-01 00:57:00,-11.6,-18.4,30.32,West,267,7.0,8.0,71,0.00,,,0.00,Wunderground v.1.13,2013-02-01 06:57:00,
2013-02-01 01:02:00,-11.7,-18.5,30.32,West,259,5.0,7.0,71,0.00,,,0.00,Wunderground v.1.13,2013-02-01 07:02:00,
2013-02-01 01:06:00,-11.7,-18.5,30.32,West,262,5.0,7.0,71,0.00,,,0.00,Wunderground v.1.13,2013-02-01 07:06:00,
2013-02-01 01:09:00,-11.7,-18.5,30.32,West,271,5.0,7.0,71,0.00,,,0.00,Wunderground v.1.13,2013-02-01 07:09:00,
2013-02-01 01:13:00,-11.8,-18.6,30.32,WSW,248,5.0,5.0,71,0.00,,,0.00,Wunderground v.1.13,2013-02-01 07:13:00,
2013-02-01 01:18:00,-11.9,-18.7,30.32,WSW,254,4.0,6.0,71,0.00,,,0.00,Wunderground v.1.13,2013-02-01 07:18:00,
2013-02-01 01:19:00,-11.9,-18.4,30.32,WSW,253,4.0,6.0,72,0.00,,,0.00,Wunderground v.1.13,2013-02-01 07:19:00,
2013-02-01 01:20:00,-11.9,-18.4,30.32,WSW,258,4.0,4.0,72,0.00,,,0.00,Wunderground v.1.13,2013-02-01 07:20:00,
2013-02-01 01:24:00,-12.0,-18.8,30.32,WSW,253,5.0,9.0,71,0.00,,,0.00,Wunderground v.1.13,2013-02-01 07:24:00,
2013-02-01 01:26:00,-12.0,-18.8,30.32,West,271,6.0,6.0,71,0.00,,,0.00,Wunderground v.1.13,2013-02-01 07:26:00,
2013-02-01 01:29:00,-12.1,-18.9,30.32,West,261,6.0,6.0,71,0.00,,,0.00,Wunderground v.1.13,2013-02-01 07:29:00,
2013-02-01 01:30:00,-12.1,-18.9,30.32,WSW,244,6.0,9.0,71,0.00,,,0.00,Wunderground v.1.13,2013-02-01 07:30:00,
2013-02-01 01:33:00,-12.1,-18.9,30.32,WSW,248,6.0,9.0,71,0.00,,,0.00,Wunderground v.1.13,2013-02-01 07:33:00,
2013-02-01 01:36:00,-12.1,-18.6,30.32,West,268,6.0,6.0,72,0.00,,,0.00,Wunderground v.1.13,2013-02-01 07:36:00,
2013-02-01 01:38:00,-12.1,-18.6,30.32,West,265,6.0,7.0,72,0.00,,,0.00,Wunderground v.1.13,2013-02-01 07:38:00,
2013-02-01 01:43:00,-12.1,-18.6,30.32,WSW,257,6.0,10.0,72,0.00,,,0.00,Wunderground v.1.13,2013-02-01 07:43:00,
2013-02-01 01:47:00,-12.2,-18.7,30.32,WSW,253,6.0,8.0,72,0.00,,,0.00,Wunderground v.1.13,2013-02-01 07:47:00,
2013-02-01 01:49:00,-12.2,-18.7,30.32,West,264,6.0,8.0,72,0.00,,,0.00,Wunderground v.1.13,2013-02-01 07:49:00,
2013-02-01 01:50:00,-12.3,-18.8,30.32,West,260,6.0,7.0,72,0.00,,,0.00,Wunderground v.1.13,2013-02-01 07:50:00,
2013-02-01 01:54:00,-12.4,-18.9,30.32,West,268,5.0,7.0,72,0.00,,,0.00,Wunderground v.1.13,2013-02-01 07:54:00,
2013-02-01 01:58:00,-12.5,-19.0,30.33,West,272,5.0,8.0,72,0.00,,,0.00,Wunderground v.1.13,2013-02-01 07:58:00,
2013-02-01 01:59:00,-12.5,-19.0,30.33,West,273,5.0,8.0,72,0.00,,,0.00,Wunderground v.1.13,2013-02-01 07:59:00,
2013-02-01 02:00:00,-12.5,-19.0,30.33,WSW,256,5.0,5.0,72,0.00,,,0.00,Wunderground v.1.13,2013-02-01 08:00:00,
2013-02-01 02:02:00,-12.5,-19.0,30.33,West,263,5.0,7.0,72,0.00,,,0.00,Wunderground v.1.13,2013-02-01 08:02:00,
2013-02-01 02:06:00,-12.5,-19.0,30.33,West,261,5.0,6.0,72,0.00,,,0.00,Wunderground v.1.13,2013-02-01 08:06:00,
2013-02-01 02:07:00,-12.6,-19.1,30.33,WSW,257,5.0,6.0,72,0.00,,,0.00,Wunderground v.1.13,2013-02-01 08:07:00,
2013-02-01 02:08:00,-12.6,-19.1,30.33,WNW,294,5.0,6.0,72,0.00,,,0.00,Wunderground v.1.13,2013-02-01 08:08:00,
2013-02-01 02:13:00,-12.7,-18.9,30.33,West,280,4.0,8.0,73,0.00,,,0.00,Wunderground v.1.13,2013-02-01 08:13:00,
2013-02-01 02:14:00,-12.7,-19.2,30.33,West,279,4.0,8.0,72,0.00,,,0.00,Wunderground v.1.13,2013-02-01 08:14:00,
2013-02-01 02:15:00,-12.8,-19.3,30.32,West,275,4.0,8.0,72,0.00,,,0.00,Wunderground v.1.13,2013-02-01 08:15:00,
2013-02-01 02:16:00,-12.8,-19.3,30.32,West,263,4.0,8.0,72,0.00,,,0.00,Wunderground v.1.13,2013-02-01 08:16:00,
2013-02-01 02:19:00,-12.8,-19.0,30.33,West,268,4.0,8.0,73,0.00,,,0.00,Wunderground v.1.13,2013-02-01 08:19:00,
2013-02-01 02:22:00,-12.9,-19.1,30.32,WNW,287,5.0,5.0,73,0.00,,,0.00,Wunderground v.1.13,2013-02-01 08:22:00,
2013-02-01 02:24:00,-12.9,-19.1,30.33,West,271,5.0,7.0,73,0.00,,,0.00,Wunderground v.1.13,2013-02-01 08:24:00,
2013-02-01 02:27:00,-12.9,-19.1,30.33,West,261,5.0,7.0,73,0.00,,,0.00,Wunderground v.1.13,2013-02-01 08:27:00,
2013-02-01 02:28:00,-12.9,-19.1,30.33,WSW,252,5.0,7.0,73,0.00,,,0.00,Wunderground v.1.13,2013-02-01 08:28:00,
2013-02-01 02:30:00,-13.0,-19.2,30.32,West,263,4.0,4.0,73,0.00,,,0.00,Wunderground v.1.13,2013-02-01 08:30:00,
2013-02-01 02:33:00,-13.0,-19.2,30.32,West,277,4.0,5.0,73,0.00,,,0.00,Wunderground v.1.13,2013-02-01 08:33:00,
2013-02-01 02:34:00,-13.1,-19.3,30.32,West,275,4.0,5.0,73,0.00,,,0.00,Wunderground v.1.13,2013-02-01 08:34:00,
2013-02-01 02:37:00,-13.1,-19.3,30.32,West,272,3.0,6.0,73,0.00,,,0.00,Wunderground v.1.13,2013-02-01 08:37:00,
2013-02-01 02:38:00,-13.2,-19.4,30.32,West,271,3.0,6.0,73,0.00,,,0.00,Wunderground v.1.13,2013-02-01 08:38:00,
2013-02-01 02:39:00,-13.2,-19.4,30.32,West,271,3.0,6.0,73,0.00,,,0.00,Wunderground v.1.13,2013-02-01 08:39:00,
2013-02-01 02:45:00,-13.3,-19.5,30.32,WSW,256,3.0,3.0,73,0.00,,,0.00,Wunderground v.1.13,2013-02-01 08:45:00,
2013-02-01 02:46:00,-13.3,-19.5,30.32,West,273,3.0,3.0,73,0.00,,,0.00,Wunderground v.1.13,2013-02-01 08:46:00,
2013-02-01 02:51:00,-13.4,-19.6,30.33,West,275,3.0,3.0,73,0.00,,,0.00,Wunderground v.1.13,2013-02-01 08:51:00,
2013-02-01 02:52:00,-13.4,-19.6,30.32,West,275,2.0,3.0,73,0.00,,,0.00,Wunderground v.1.13,2013-02-01 08:52:00,
2013-02-01 02:54:00,-13.4,-19.6,30.32,West,273,2.0,3.0,73,0.00,,,0.00,Wunderground v.1.13,2013-02-01 08:54:00,
2013-02-01 02:57:00,-13.5,-19.4,30.32,West,273,2.0,3.0,74,0.00,,,0.00,Wunderground v.1.13,2013-02-01 08:57:00,
2013-02-01 02:59:00,-13.5,-19.4,30.32,West,272,1.0,3.0,74,0.00,,,0.00,Wunderground v.1.13,2013-02-01 08:59:00,
2013-02-01 03:02:00,-13.6,-19.5,30.32,West,271,1.0,2.0,74,0.00,,,0.00,Wunderground v.1.13,2013-02-01 09:02:00,
2013-02-01 03:04:00,-13.7,-19.6,30.32,West,270,1.0,2.0,74,0.00,,,0.00,Wunderground v.1.13,2013-02-01 09:04:00,
2013-02-01 03:05:00,-13.7,-19.6,30.33,West,269,2.0,3.0,74,0.00,,,0.00,Wunderground v.1.13,2013-02-01 09:05:00,
2013-02-01 03:11:00,-13.8,-19.7,30.32,West,267,2.0,2.0,74,0.00,,,0.00,Wunderground v.1.13,2013-02-01 09:11:00,
2013-02-01 03:13:00,-13.8,-19.7,30.32,West,266,2.0,3.0,74,0.00,,,0.00,Wunderground v.1.13,2013-02-01 09:13:00,
2013-02-01 03:15:00,-13.9,-19.8,30.32,West,265,2.0,2.0,74,0.00,,,0.00,Wunderground v.1.13,2013-02-01 09:15:00,
2013-02-01 03:16:00,-13.9,-19.8,30.32,West,266,2.0,2.0,74,0.00,,,0.00,Wunderground v.1.13,2013-02-01 09:16:00,
2013-02-01 03:19:00,-13.9,-19.8,30.32,West,265,1.0,2.0,74,0.00,,,0.00,Wunderground v.1.13,2013-02-01 09:19:00,
2013-02-01 03:22:00,-14.0,-19.9,30.33,West,265,1.0,4.0,74,0.00,,,0.00,Wunderground v.1.13,2013-02-01 09:22:00,
2013-02-01 03:24:00,-14.0,-19.6,30.32,West,265,1.0,4.0,75,0.00,,,0.00,Wunderground v.1.13,2013-02-01 09:24:00,
2013-02-01 03:25:00,-14.0,-19.6,30.32,West,265,1.0,1.0,75,0.00,,,0.00,Wunderground v.1.13,2013-02-01 09:25:00,
2013-02-01 03:29:00,-14.1,-19.7,30.33,West,264,1.0,4.0,75,0.00,,,0.00,Wunderground v.1.13,2013-02-01 09:29:00,
2013-02-01 03:30:00,-14.1,-19.7,30.33,West,264,1.0,1.0,75,0.00,,,0.00,Wunderground v.1.13,2013-02-01 09:30:00,
2013-02-01 03:34:00,-14.3,-19.9,30.33,West,263,1.0,2.0,75,0.00,,,0.00,Wunderground v.1.13,2013-02-01 09:34:00,
2013-02-01 03:35:00,-14.3,-19.9,30.33,West,263,1.0,2.0,75,0.00,,,0.00,Wunderground v.1.13,2013-02-01 09:35:00,
2013-02-01 03:39:00,-14.3,-19.9,30.33,West,263,2.0,2.0,75,0.00,,,0.00,Wunderground v.1.13,2013-02-01 09:39:00,
2013-02-01 03:40:00,-14.3,-19.9,30.33,West,263,1.0,1.0,75,0.00,,,0.00,Wunderground v.1.13,2013-02-01 09:40:00,
2013-02-01 03:45:00,-14.3,-19.9,30.33,West,263,1.0,1.0,75,0.00,,,0.00,Wunderground v.1.13,2013-02-01 09:45:00,
2013-02-01 03:46:00,-14.3,-19.9,30.33,West,263,1.0,1.0,75,0.00,,,0.00,Wunderground v.1.13,2013-02-01 09:46:00,
2013-02-01 03:47:00,-14.3,-19.9,30.33,West,263,1.0,1.0,75,0.00,,,0.00,Wunderground v.1.13,2013-02-01 09:47:00,
2013-02-01 03:50:00,-14.4,-20.0,30.33,West,261,1.0,3.0,75,0.00,,,0.00,Wunderground v.1.13,2013-02-01 09:50:00,
2013-02-01 03:51:00,-14.4,-20.0,30.33,West,262,1.0,3.0,75,0.00,,,0.00,Wunderground v.1.13,2013-02-01 09:51:00,
2013-02-01 03:53:00,-14.4,-20.0,30.33,West,262,1.0,3.0,75,0.00,,,0.00,Wunderground v.1.13,2013-02-01 09:53:00,
2013-02-01 03:54:00,-14.4,-20.0,30.33,West,261,1.0,3.0,75,0.00,,,0.00,Wunderground v.1.13,2013-02-01 09:54:00,
2013-02-01 03:55:00,-14.5,-20.1,30.33,West,262,1.0,1.0,75,0.00,,,0.00,Wunderground v.1.13,2013-02-01 09:55:00,
2013-02-01 03:58:00,-14.5,-20.1,30.33,West,261,1.0,2.0,75,0.00,,,0.00,Wunderground v.1.13,2013-02-01 09:58:00,
2013-02-01 04:00:00,-14.6,-20.2,30.33,West,262,1.0,1.0,75,0.00,,,0.00,Wunderground v.1.13,2013-02-01 10:00:00,
2013-02-01 04:03:00,-14.7,-20.3,30.34,West,261,1.0,2.0,75,0.00,,,0.00,Wunderground v.1.13,2013-02-01 10:03:00,
2013-02-01 04:06:00,-14.7,-20.1,30.34,West,261,1.0,1.0,76,0.00,,,0.00,Wunderground v.1.13,2013-02-01 10:06:00,
2013-02-01 04:08:00,-14.7,-20.1,30.34,West,261,1.0,1.0,76,0.00,,,0.00,Wunderground v.1.13,2013-02-01 10:08:00,
2013-02-01 04:09:00,-14.7,-20.1,30.34,West,261,1.0,2.0,76,0.00,,,0.00,Wunderground v.1.13,2013-02-01 10:09:00,
2013-02-01 04:12:00,-14.8,-20.2,30.34,West,261,1.0,5.0,76,0.00,,,0.00,Wunderground v.1.13,2013-02-01 10:12:00,
2013-02-01 04:15:00,-14.8,-20.2,30.34,WSW,253,2.0,4.0,76,0.00,,,0.00,Wunderground v.1.13,2013-02-01 10:15:00,
2013-02-01 04:17:00,-14.8,-20.2,30.34,WSW,253,2.0,4.0,76,0.00,,,0.00,Wunderground v.1.13,2013-02-01 10:17:00,
2013-02-01 04:21:00,-14.8,-20.2,30.34,WSW,252,2.0,2.0,76,0.00,,,0.00,Wunderground v.1.13,2013-02-01 10:21:00,
2013-02-01 04:23:00,-14.8,-20.2,30.34,WSW,252,2.0,2.0,76,0.00,,,0.00,Wunderground v.1.13,2013-02-01 10:23:00,
2013-02-01 04:26:00,-14.9,-20.3,30.34,WSW,252,2.0,2.0,76,0.00,,,0.00,Wunderground v.1.13,2013-02-01 10:26:00,
2013-02-01 04:27:00,-14.9,-20.3,30.34,WSW,250,2.0,2.0,76,0.00,,,0.00,Wunderground v.1.13,2013-02-01 10:27:00,
2013-02-01 04:30:00,-14.9,-20.3,30.34,WSW,251,1.0,4.0,76,0.00,,,0.00,Wunderground v.1.13,2013-02-01 10:30:00,
2013-02-01 04:33:00,-14.9,-20.3,30.34,WSW,250,2.0,4.0,76,0.00,,,0.00,Wunderground v.1.13,2013-02-01 10:33:00,
2013-02-01 04:35:00,-14.9,-20.3,30.34,WSW,250,1.0,1.0,76,0.00,,,0.00,Wunderground v.1.13,2013-02-01 10:35:00,
2013-02-01 04:38:00,-15.0,-20.1,30.34,WSW,250,2.0,4.0,77,0.00,,,0.00,Wunderground v.1.13,2013-02-01 10:38:00,
2013-02-01 04:39:00,-15.0,-20.1,30.34,WSW,250,2.0,4.0,77,0.00,,,0.00,Wunderground v.1.13,2013-02-01 10:39:00,
2013-02-01 04:42:00,-15.0,-20.1,30.34,WSW,252,2.0,4.0,77,0.00,,,0.00,Wunderground v.1.13,2013-02-01 10:42:00,
2013-02-01 04:47:00,-15.1,-20.2,30.35,WSW,252,2.0,2.0,77,0.00,,,0.00,Wunderground v.1.13,2013-02-01 10:47:00,
2013-02-01 04:51:00,-15.1,-20.2,30.34,WSW,253,2.0,2.0,77,0.00,,,0.00,Wunderground v.1.13,2013-02-01 10:51:00,
2013-02-01 04:53:00,-15.1,-20.2,30.34,WSW,253,1.0,2.0,77,0.00,,,0.00,Wunderground v.1.13,2013-02-01 10:53:00,
2013-02-01 04:56:00,-15.1,-20.2,30.34,WSW,252,1.0,2.0,77,0.00,,,0.00,Wunderground v.1.13,2013-02-01 10:56:00,
2013-02-01 04:58:00,-15.1,-20.2,30.34,WSW,253,1.0,4.0,77,0.00,,,0.00,Wunderground v.1.13,2013-02-01 10:58:00,
2013-02-01 05:00:00,-15.1,-20.2,30.34,WSW,253,1.0,2.0,77,0.00,,,0.00,Wunderground v.1.13,2013-02-01 11:00:00,
2013-02-01 05:01:00,-15.1,-20.2,30.34,WSW,253,2.0,2.0,77,0.00,,,0.00,Wunderground v.1.13,2013-02-01 11:01:00,
2013-02-01 05:07:00,-15.2,-20.3,30.35,WSW,252,2.0,2.0,77,0.00,,,0.00,Wunderground v.1.13,2013-02-01 11:07:00,
2013-02-01 05:08:00,-15.2,-20.3,30.35,WSW,252,2.0,2.0,77,0.00,,,0.00,Wunderground v.1.13,2013-02-01 11:08:00,
2013-02-01 05:10:00,-15.2,-20.3,30.35,WSW,253,2.0,2.0,77,0.00,,,0.00,Wunderground v.1.13,2013-02-01 11:10:00,
2013-02-01 05:13:00,-15.2,-20.3,30.35,WSW,253,1.0,2.0,77,0.00,,,0.00,Wunderground v.1.13,2013-02-01 11:13:00,
2013-02-01 05:14:00,-15.3,-20.4,30.35,WSW,253,1.0,2.0,77,0.00,,,0.00,Wunderground v.1.13,2013-02-01 11:14:00,
2013-02-01 05:16:00,-15.3,-20.4,30.35,WSW,253,1.0,1.0,77,0.00,,,0.00,Wunderground v.1.13,2013-02-01 11:16:00,
2013-02-01 05:21:00,-15.3,-20.4,30.35,WSW,253,1.0,1.0,77,0.00,,,0.00,Wunderground v.1.13,2013-02-01 11:21:00,
2013-02-01 05:24:00,-15.3,-20.4,30.35,WSW,252,1.0,3.0,77,0.00,,,0.00,Wunderground v.1.13,2013-02-01 11:24:00,
2013-02-01 05:28:00,-15.4,-20.5,30.35,WSW,249,2.0,3.0,77,0.00,,,0.00,Wunderground v.1.13,2013-02-01 11:28:00,
2013-02-01 05:30:00,-15.4,-20.5,30.35,WSW,249,2.0,2.0,77,0.00,,,0.00,Wunderground v.1.13,2013-02-01 11:30:00,
2013-02-01 05:31:00,-15.4,-20.5,30.35,WSW,249,2.0,2.0,77,0.00,,,0.00,Wunderground v.1.13,2013-02-01 11:31:00,
2013-02-01 05:36:00,-15.4,-20.5,30.35,WSW,252,1.0,6.0,77,0.00,,,0.00,Wunderground v.1.13,2013-02-01 11:36:00,
2013-02-01 05:37:00,-15.4,-20.5,30.35,WSW,252,1.0,6.0,77,0.00,,,0.00,Wunderground v.1.13,2013-02-01 11:37:00,
2013-02-01 05:42:00,-15.5,-20.6,30.36,WSW,253,1.0,2.0,77,0.00,,,0.00,Wunderground v.1.13,2013-02-01 11:42:00,
2013-02-01 05:43:00,-15.5,-20.6,30.36,WSW,252,1.0,2.0,77,0.00,,,0.00,Wunderground v.1.13,2013-02-01 11:43:00,
2013-02-01 05:44:00,-15.5,-20.6,30.36,WSW,252,1.0,2.0,77,0.00,,,0.00,Wunderground v.1.13,2013-02-01 11:44:00,
2013-02-01 05:47:00,-15.6,-20.7,30.36,WSW,255,1.0,2.0,77,0.00,,,0.00,Wunderground v.1.13,2013-02-01 11:47:00,
2013-02-01 05:49:00,-15.6,-20.7,30.36,WSW,254,1.0,2.0,77,0.00,,,0.00,Wunderground v.1.13,2013-02-01 11:49:00,
2013-02-01 05:53:00,-15.6,-20.7,30.35,WSW,254,1.0,2.0,77,0.00,,,0.00,Wunderground v.1.13,2013-02-01 11:53:00,
2013-02-01 05:55:00,-15.6,-20.7,30.35,WSW,255,1.0,1.0,77,0.00,,,0.00,Wunderground v.1.13,2013-02-01 11:55:00,
2013-02-01 05:57:00,-15.6,-20.7,30.35,WSW,255,1.0,1.0,77,0.00,,,0.00,Wunderground v.1.13,2013-02-01 11:57:00,
2013-02-01 06:00:00,-15.7,-20.8,30.35,West,259,1.0,1.0,77,0.00,,,0.00,Wunderground v.1.13,2013-02-01 12:00:00,
2013-02-01 06:01:00,-15.7,-20.8,30.35,West,259,1.0,1.0,77,0.00,,,0.00,Wunderground v.1.13,2013-02-01 12:01:00,
2013-02-01 06:03:00,-15.7,-20.8,30.35,West,259,1.0,1.0,77,0.00,,,0.00,Wunderground v.1.13,2013-02-01 12:03:00,
2013-02-01 06:08:00,-15.8,-20.9,30.35,WSW,258,1.0,1.0,77,0.00,,,0.00,Wunderground v.1.13,2013-02-01 12:08:00,
2013-02-01 06:10:00,-15.9,-21.0,30.35,WSW,257,1.0,1.0,77,0.00,,,0.00,Wunderground v.1.13,2013-02-01 12:10:00,
2013-02-01 06:15:00,-16.0,-21.1,30.35,WSW,258,0.0,1.0,77,0.00,,,0.00,Wunderground v.1.13,2013-02-01 12:15:00,
2013-02-01 06:19:00,-16.1,-21.2,30.36,WSW,257,0.0,1.0,77,0.00,,,0.00,Wunderground v.1.13,2013-02-01 12:19:00,
2013-02-01 06:23:00,-16.2,-21.3,30.36,WSW,258,0.0,0.0,77,0.00,,,0.00,Wunderground v.1.13,2013-02-01 12:23:00,
2013-02-01 06:26:00,-16.2,-21.3,30.36,WSW,257,0.0,0.0,77,0.00,,,0.00,Wunderground v.1.13,2013-02-01 12:26:00,
2013-02-01 06:29:00,-16.3,-21.4,30.36,WSW,258,0.0,1.0,77,0.00,,,0.00,Wunderground v.1.13,2013-02-01 12:29:00,
2013-02-01 06:31:00,-16.3,-21.4,30.36,WSW,258,0.0,0.0,77,0.00,,,0.00,Wunderground v.1.13,2013-02-01 12:31:00,
2013-02-01 06:35:00,-16.5,-21.6,30.36,WSW,258,0.0,0.0,77,0.00,,,0.00,Wunderground v.1.13,2013-02-01 12:35:00,
2013-02-01 06:38:00,-16.6,-21.7,30.36,WSW,258,0.0,0.0,77,0.00,,,0.00,Wunderground v.1.13,2013-02-01 12:38:00,
2013-02-01 06:39:00,-16.6,-21.7,30.36,WSW,258,0.0,0.0,77,0.00,,,0.00,Wunderground v.1.13,2013-02-01 12:39:00,
2013-02-01 06:40:00,-16.6,-21.4,30.36,WSW,257,0.0,0.0,78,0.00,,,0.00,Wunderground v.1.13,2013-02-01 12:40:00,
2013-02-01 06:41:00,-16.6,-21.4,30.36,WSW,257,0.0,0.0,78,0.00,,,0.00,Wunderground v.1.13,2013-02-01 12:41:00,
2013-02-01 06:46:00,-16.7,-21.5,30.36,WSW,258,0.0,0.0,78,0.00,,,0.00,Wunderground v.1.13,2013-02-01 12:46:00,
2013-02-01 06:47:00,-16.8,-21.6,30.36,WSW,258,0.0,0.0,78,0.00,,,0.00,Wunderground v.1.13,2013-02-01 12:47:00,
2013-02-01 06:50:00,-16.8,-21.6,30.36,WSW,258,0.0,0.0,78,0.00,,,0.00,Wunderground v.1.13,2013-02-01 12:50:00,
2013-02-01 06:55:00,-17.0,-21.8,30.36,WSW,258,0.0,0.0,78,0.00,,,0.00,Wunderground v.1.13,2013-02-01 12:55:00,
2013-02-01 06:56:00,-17.1,-21.9,30.36,WSW,258,0.0,0.0,78,0.00,,,0.00,Wunderground v.1.13,2013-02-01 12:56:00,
2013-02-01 07:01:00,-17.2,-22.0,30.36,WSW,257,0.0,0.0,78,0.00,,,0.00,Wunderground v.1.13,2013-02-01 13:01:00,
2013-02-01 07:03:00,-17.2,-22.0,30.36,WSW,258,0.0,0.0,78,0.00,,,0.00,Wunderground v.1.13,2013-02-01 13:03:00,
2013-02-01 07:07:00,-17.3,-22.1,30.36,WSW,258,0.0,0.0,78,0.00,,,0.00,Wunderground v.1.13,2013-02-01 13:07:00,
2013-02-01 07:09:00,-17.3,-22.1,30.36,WSW,257,0.0,0.0,78,0.00,,,0.00,Wunderground v.1.13,2013-02-01 13:09:00,
2013-02-01 07:12:00,-17.4,-22.2,30.36,WSW,258,0.0,0.0,78,0.00,,,0.00,Wunderground v.1.13,2013-02-01 13:12:00,
2013-02-01 07:13:00,-17.4,-22.2,30.36,WSW,257,0.0,0.0,78,0.00,,,0.00,Wunderground v.1.13,2013-02-01 13:13:00,
2013-02-01 07:15:00,-17.4,-22.2,30.36,WSW,258,0.0,0.0,78,0.00,,,0.00,Wunderground v.1.13,2013-02-01 13:15:00,
2013-02-01 07:18:00,-17.5,-22.3,30.36,WSW,257,0.0,0.0,78,0.00,,,0.00,Wunderground v.1.13,2013-02-01 13:18:00,
2013-02-01 07:23:00,-17.5,-22.1,30.36,WSW,258,0.0,0.0,79,0.00,,,0.00,Wunderground v.1.13,2013-02-01 13:23:00,
2013-02-01 07:25:00,-17.5,-22.1,30.36,WSW,257,0.0,0.0,79,0.00,,,0.00,Wunderground v.1.13,2013-02-01 13:25:00,
2013-02-01 07:29:00,-17.6,-22.1,30.36,WSW,257,0.0,0.0,79,0.00,,,0.00,Wunderground v.1.13,2013-02-01 13:29:00,
2013-02-01 07:31:00,-17.6,-22.1,30.36,WSW,258,0.0,0.0,79,0.00,,,0.00,Wunderground v.1.13,2013-02-01 13:31:00,
2013-02-01 07:32:00,-17.6,-22.1,30.36,WSW,257,0.0,0.0,79,0.00,,,0.00,Wunderground v.1.13,2013-02-01 13:32:00,
2013-02-01 07:34:00,-17.7,-22.2,30.36,WSW,258,0.0,1.0,79,0.00,,,0.00,Wunderground v.1.13,2013-02-01 13:34:00,
2013-02-01 07:38:00,-17.6,-22.1,30.35,WSW,258,0.0,0.0,79,0.00,,,0.00,Wunderground v.1.13,2013-02-01 13:38:00,
2013-02-01 07:39:00,-17.6,-19.2,30.35,WSW,258,0.0,0.0,92,0.00,,,0.00,Wunderground v.1.13,2013-02-01 13:39:00,
2013-02-01 07:43:00,-17.6,-22.1,30.36,WSW,258,0.0,0.0,79,0.00,,,0.00,Wunderground v.1.13,2013-02-01 13:43:00,
2013-02-01 07:44:00,-17.6,-22.1,30.36,WSW,257,0.0,0.0,79,0.00,,,0.00,Wunderground v.1.13,2013-02-01 13:44:00,
2013-02-01 07:45:00,-17.6,-22.1,30.36,WSW,257,0.0,0.0,79,0.00,,,0.00,Wunderground v.1.13,2013-02-01 13:45:00,
2013-02-01 07:50:00,-17.6,-22.1,30.35,WSW,258,0.0,0.0,79,0.00,,,0.00,Wunderground v.1.13,2013-02-01 13:50:00,
2013-02-01 07:51:00,-17.5,-22.1,30.35,WSW,258,0.0,0.0,79,0.00,,,0.00,Wunderground v.1.13,2013-02-01 13:51:00,
2013-02-01 07:52:00,-17.5,-22.1,30.36,WSW,258,0.0,0.0,79,0.00,,,0.00,Wunderground v.1.13,2013-02-01 13:52:00,
2013-02-01 07:58:00,-17.2,-21.8,30.35,WSW,257,0.0,0.0,79,0.00,,,0.00,Wunderground v.1.13,2013-02-01 13:58:00,
2013-02-01 08:00:00,-17.0,-21.6,30.35,WSW,258,0.0,0.0,79,0.00,,,0.00,Wunderground v.1.13,2013-02-01 14:00:00,
2013-02-01 08:01:00,-17.0,-21.6,30.35,WSW,258,0.0,0.0,79,0.00,,,0.00,Wunderground v.1.13,2013-02-01 14:01:00,
2013-02-01 08:02:00,-16.8,-18.4,30.35,WSW,258,0.0,0.0,92,0.00,,,0.00,Wunderground v.1.13,2013-02-01 14:02:00,
2013-02-01 08:06:00,-16.5,-21.1,30.35,WSW,258,0.0,0.0,79,0.00,,,0.00,Wunderground v.1.13,2013-02-01 14:06:00,
2013-02-01 08:07:00,-16.4,-21.0,30.35,WSW,257,0.0,0.0,79,0.00,,,0.00,Wunderground v.1.13,2013-02-01 14:07:00,
2013-02-01 08:09:00,-16.2,-20.8,30.35,WSW,258,0.0,0.0,79,0.00,,,0.00,Wunderground v.1.13,2013-02-01 14:09:00,
2013-02-01 08:13:00,-15.9,-20.5,30.34,WSW,258,0.0,0.0,79,0.00,,,0.00,Wunderground v.1.13,2013-02-01 14:13:00,
2013-02-01 08:14:00,-15.7,-20.3,30.34,WSW,258,0.0,0.0,79,0.00,,,0.00,Wunderground v.1.13,2013-02-01 14:14:00,
2013-02-01 08:15:00,-15.6,-20.2,30.34,WSW,257,0.0,0.0,79,0.00,,,0.00,Wunderground v.1.13,2013-02-01 14:15:00,
2013-02-01 08:19:00,-15.4,-20.0,30.34,WSW,257,0.0,0.0,79,0.00,,,0.00,Wunderground v.1.13,2013-02-01 14:19:00,
2013-02-01 08:20:00,-15.4,-20.0,30.34,WSW,257,0.0,0.0,79,0.00,,,0.00,Wunderground v.1.13,2013-02-01 14:20:00,
2013-02-01 08:21:00,-15.3,-19.9,30.34,WSW,258,0.0,0.0,79,0.00,,,0.00,Wunderground v.1.13,2013-02-01 14:21:00,
2013-02-01 08:25:00,-15.3,-19.9,30.34,WSW,258,0.0,0.0,79,0.00,,,0.00,Wunderground v.1.13,2013-02-01 14:25:00,
2013-02-01 08:27:00,-15.2,-19.8,30.34,WSW,257,0.0,1.0,79,0.00,,,0.00,Wunderground v.1.13,2013-02-01 14:27:00,
2013-02-01 08:28:00,-15.1,-19.7,30.34,WSW,257,0.0,1.0,79,0.00,,,0.00,Wunderground v.1.13,2013-02-01 14:28:00,
2013-02-01 08:30:00,-14.9,-19.5,30.34,WSW,258,0.0,1.0,79,0.00,,,0.00,Wunderground v.1.13,2013-02-01 14:30:00,
2013-02-01 08:35:00,-14.8,-19.4,30.34,WSW,258,1.0,2.0,79,0.00,,,0.00,Wunderground v.1.13,2013-02-01 14:35:00,
2013-02-01 08:36:00,-14.8,-19.4,30.34,WSW,258,1.0,2.0,79,0.00,,,0.00,Wunderground v.1.13,2013-02-01 14:36:00,
2013-02-01 08:42:00,-14.7,-19.6,30.34,WSW,257,1.0,1.0,78,0.00,,,0.00,Wunderground v.1.13,2013-02-01 14:42:00,
2013-02-01 08:43:00,-14.7,-19.3,30.34,WSW,257,1.0,1.0,79,0.00,,,0.00,Wunderground v.1.13,2013-02-01 14:43:00,
2013-02-01 08:45:00,-14.5,-19.1,30.34,WSW,258,1.0,1.0,79,0.00,,,0.00,Wunderground v.1.13,2013-02-01 14:45:00,
2013-02-01 08:48:00,-14.5,-19.1,30.34,WSW,258,1.0,3.0,79,0.00,,,0.00,Wunderground v.1.13,2013-02-01 14:48:00,
2013-02-01 08:51:00,-14.4,-19.0,30.34,WSW,257,1.0,2.0,79,0.00,,,0.00,Wunderground v.1.13,2013-02-01 14:51:00,
2013-02-01 08:54:00,-14.3,-19.2,30.34,WSW,258,1.0,2.0,78,0.00,,,0.00,Wunderground v.1.13,2013-02-01 14:54:00,
2013-02-01 08:55:00,-14.3,-19.2,30.34,WSW,257,1.0,1.0,78,0.00,,,0.00,Wunderground v.1.13,2013-02-01 14:55:00,
2013-02-01 08:57:00,-14.2,-19.1,30.34,WSW,258,1.0,2.0,78,0.00,,,0.00,Wunderground v.1.13,2013-02-01 14:57:00,
2013-02-01 09:02:00,-14.0,-18.9,30.34,WSW,254,2.0,5.0,78,0.00,,,0.00,Wunderground v.1.13,2013-02-01 15:02:00,
2013-02-01 09:03:00,-13.9,-18.8,30.34,WSW,257,2.0,6.0,78,0.00,,,0.00,Wunderground v.1.13,2013-02-01 15:03:00,
2013-02-01 09:07:00,-13.9,-19.0,30.33,West,261,3.0,3.0,77,0.00,,,0.00,Wunderground v.1.13,2013-02-01 15:07:00,
2013-02-01 09:09:00,-13.8,-18.9,30.33,West,274,4.0,4.0,77,0.00,,,0.00,Wunderground v.1.13,2013-02-01 15:09:00,
2013-02-01 09:10:00,-13.8,-18.9,30.33,West,274,4.0,4.0,77,0.00,,,0.00,Wunderground v.1.13,2013-02-01 15:10:00,
2013-02-01 09:15:00,-13.5,-18.6,30.33,West,274,2.0,3.0,77,0.00,,,0.00,Wunderground v.1.13,2013-02-01 15:15:00,
2013-02-01 09:16:00,-13.5,-18.6,30.33,West,274,2.0,3.0,77,0.00,,,0.00,Wunderground v.1.13,2013-02-01 15:16:00,
2013-02-01 09:19:00,-13.3,-18.4,30.33,West,267,2.0,7.0,77,0.00,,,0.00,Wunderground v.1.13,2013-02-01 15:19:00,
2013-02-01 09:23:00,-13.1,-18.5,30.33,West,267,2.0,2.0,76,0.00,,,0.00,Wunderground v.1.13,2013-02-01 15:23:00,
2013-02-01 09:25:00,-13.1,-18.5,30.33,WSW,257,3.0,4.0,76,0.00,,,0.00,Wunderground v.1.13,2013-02-01 15:25:00,
2013-02-01 09:28:00,-13.0,-18.7,30.33,West,259,3.0,4.0,75,0.00,,,0.00,Wunderground v.1.13,2013-02-01 15:28:00,
2013-02-01 09:31:00,-13.1,-18.8,30.32,WSW,258,4.0,4.0,75,0.00,,,0.00,Wunderground v.1.13,2013-02-01 15:31:00,
2013-02-01 09:37:00,-13.0,-18.9,30.33,West,267,3.0,4.0,74,0.00,,,0.00,Wunderground v.1.13,2013-02-01 15:37:00,
2013-02-01 09:38:00,-12.9,-18.8,30.33,West,267,3.0,4.0,74,0.00,,,0.00,Wunderground v.1.13,2013-02-01 15:38:00,
2013-02-01 09:42:00,-12.7,-18.6,30.32,West,267,2.0,5.0,74,0.00,,,0.00,Wunderground v.1.13,2013-02-01 15:42:00,
2013-02-01 09:48:00,-12.3,-18.2,30.32,West,268,2.0,2.0,74,0.00,,,0.00,Wunderground v.1.13,2013-02-01 15:48:00,
2013-02-01 09:50:00,-12.2,-18.4,30.32,WSW,255,2.0,2.0,73,0.00,,,0.00,Wunderground v.1.13,2013-02-01 15:50:00,
2013-02-01 09:54:00,-12.0,-18.2,30.32,WSW,254,2.0,5.0,73,0.00,,,0.00,Wunderground v.1.13,2013-02-01 15:54:00,
2013-02-01 09:56:00,-11.6,-17.8,30.32,WSW,254,2.0,2.0,73,0.00,,,0.00,Wunderground v.1.13,2013-02-01 15:56:00,
2013-02-01 09:58:00,-11.2,-17.2,30.32,WSW,254,2.0,2.0,74,0.00,,,0.00,Wunderground v.1.13,2013-02-01 15:58:00,
2013-02-01 10:04:00,-11.0,-17.8,30.32,West,273,2.0,6.0,71,0.00,,,0.00,Wunderground v.1.13,2013-02-01 16:04:00,
2013-02-01 10:07:00,-11.1,-18.2,30.32,West,271,3.0,5.0,70,0.00,,,0.00,Wunderground v.1.13,2013-02-01 16:07:00,
2013-02-01 10:10:00,-11.3,-18.6,30.31,West,275,4.0,4.0,69,0.00,,,0.00,Wunderground v.1.13,2013-02-01 16:10:00,
2013-02-01 10:13:00,-11.3,-18.6,30.32,West,262,4.0,5.0,69,0.00,,,0.00,Wunderground v.1.13,2013-02-01 16:13:00,
2013-02-01 10:16:00,-11.2,-18.5,30.31,WSW,248,4.0,4.0,69,0.00,,,0.00,Wunderground v.1.13,2013-02-01 16:16:00,
2013-02-01 10:20:00,-11.1,-18.7,30.31,West,259,4.0,4.0,68,0.00,,,0.00,Wunderground v.1.13,2013-02-01 16:20:00,
2013-02-01 10:22:00,-10.9,-18.3,30.31,West,261,3.0,4.0,69,0.00,,,0.00,Wunderground v.1.13,2013-02-01 16:22:00,
2013-02-01 10:26:00,-10.6,-18.0,30.31,West,260,3.0,5.0,69,0.00,,,0.00,Wunderground v.1.13,2013-02-01 16:26:00,
2013-02-01 10:27:00,-10.6,-18.3,30.31,West,260,3.0,5.0,68,0.00,,,0.00,Wunderground v.1.13,2013-02-01 16:27:00,
2013-02-01 10:31:00,-10.4,-18.1,30.31,West,259,3.0,7.0,68,0.00,,,0.00,Wunderground v.1.13,2013-02-01 16:31:00,
2013-02-01 10:33:00,-10.4,-18.3,30.31,West,260,4.0,7.0,67,0.00,,,0.00,Wunderground v.1.13,2013-02-01 16:33:00,
2013-02-01 10:35:00,-10.4,-18.3,30.31,West,261,4.0,5.0,67,0.00,,,0.00,Wunderground v.1.13,2013-02-01 16:35:00,
2013-02-01 10:37:00,-10.5,-18.4,30.31,West,259,4.0,7.0,67,0.00,,,0.00,Wunderground v.1.13,2013-02-01 16:37:00,
2013-02-01 10:41:00,-10.5,-18.4,30.32,West,271,5.0,5.0,67,0.00,,,0.00,Wunderground v.1.13,2013-02-01 16:41:00,
2013-02-01 10:45:00,-10.3,-18.3,30.31,West,272,4.0,4.0,67,0.00,,,0.00,Wunderground v.1.13,2013-02-01 16:45:00,
2013-02-01 10:46:00,-10.2,-18.2,30.31,West,271,4.0,4.0,67,0.00,,,0.00,Wunderground v.1.13,2013-02-01 16:46:00,
2013-02-01 10:51:00,-9.6,-17.6,30.31,West,276,2.0,3.0,67,0.00,,,0.00,Wunderground v.1.13,2013-02-01 16:51:00,
2013-02-01 10:52:00,-9.4,-17.4,30.31,West,276,2.0,5.0,67,0.00,,,0.00,Wunderground v.1.13,2013-02-01 16:52:00,
2013-02-01 10:53:00,-9.4,-17.4,30.31,West,276,2.0,5.0,67,0.00,,,0.00,Wunderground v.1.13,2013-02-01 16:53:00,
2013-02-01 10:58:00,-9.5,-17.8,30.31,West,267,3.0,5.0,66,0.00,,,0.00,Wunderground v.1.13,2013-02-01 16:58:00,
2013-02-01 10:59:00,-9.6,-17.9,30.31,WSW,256,3.0,7.0,66,0.00,,,0.00,Wunderground v.1.13,2013-02-01 16:59:00,
2013-02-01 11:03:00,-9.9,-18.5,30.32,WSW,252,4.0,7.0,65,0.00,,,0.00,Wunderground v.1.13,2013-02-01 17:03:00,
2013-02-01 11:04:00,-9.8,-18.1,30.31,WSW,252,4.0,7.0,66,0.00,,,0.00,Wunderground v.1.13,2013-02-01 17:04:00,
2013-02-01 11:09:00,-9.6,-18.2,30.31,West,269,4.0,7.0,65,0.00,,,0.00,Wunderground v.1.13,2013-02-01 17:09:00,
2013-02-01 11:10:00,-9.6,-18.2,30.31,West,267,4.0,6.0,65,0.00,,,0.00,Wunderground v.1.13,2013-02-01 17:10:00,
2013-02-01 11:13:00,-9.6,-18.2,30.31,WSW,244,4.0,6.0,65,0.00,,,0.00,Wunderground v.1.13,2013-02-01 17:13:00,
2013-02-01 11:16:00,-9.4,-18.0,30.31,West,261,4.0,6.0,65,0.00,,,0.00,Wunderground v.1.13,2013-02-01 17:16:00,
2013-02-01 11:18:00,-9.4,-18.0,30.31,WSW,257,4.0,6.0,65,0.00,,,0.00,Wunderground v.1.13,2013-02-01 17:18:00,
2013-02-01 11:24:00,-9.0,-17.6,30.31,West,269,4.0,8.0,65,0.00,,,0.00,Wunderground v.1.13,2013-02-01 17:24:00,
2013-02-01 11:28:00,-8.7,-17.3,30.31,WSW,250,5.0,5.0,65,0.00,,,0.00,Wunderground v.1.13,2013-02-01 17:28:00,
2013-02-01 11:29:00,-8.5,-17.1,30.31,WSW,250,5.0,5.0,65,0.00,,,0.00,Wunderground v.1.13,2013-02-01 17:29:00,
2013-02-01 11:32:00,-8.2,-16.8,30.30,West,263,4.0,4.0,65,0.00,,,0.00,Wunderground v.1.13,2013-02-01 17:32:00,
2013-02-01 11:34:00,-7.8,-16.1,30.30,West,263,3.0,4.0,66,0.00,,,0.00,Wunderground v.1.13,2013-02-01 17:34:00,
2013-02-01 11:38:00,-7.1,-15.8,30.29,West,263,1.0,2.0,65,0.00,,,0.00,Wunderground v.1.13,2013-02-01 17:38:00,
2013-02-01 11:39:00,-7.0,-16.0,30.29,West,263,1.0,2.0,64,0.00,,,0.00,Wunderground v.1.13,2013-02-01 17:39:00,
2013-02-01 11:40:00,-6.9,-15.9,30.29,West,263,1.0,1.0,64,0.00,,,0.00,Wunderground v.1.13,2013-02-01 17:40:00,
2013-02-01 11:44:00,-6.1,-15.1,30.29,West,263,1.0,1.0,64,0.00,,,0.00,Wunderground v.1.13,2013-02-01 17:44:00,
2013-02-01 11:47:00,-6.0,-15.7,30.29,West,263,1.0,5.0,62,0.00,,,0.00,Wunderground v.1.13,2013-02-01 17:47:00,
2013-02-01 11:49:00,-6.0,-15.7,30.29,West,263,1.0,5.0,62,0.00,,,0.00,Wunderground v.1.13,2013-02-01 17:49:00,
2013-02-01 11:50:00,-5.9,-15.6,30.29,SE,126,1.0,4.0,62,0.00,,,0.00,Wunderground v.1.13,2013-02-01 17:50:00,
2013-02-01 11:53:00,-5.8,-15.5,30.29,SSE,148,2.0,5.0,62,0.00,,,0.00,Wunderground v.1.13,2013-02-01 17:53:00,
2013-02-01 11:54:00,-5.8,-15.2,30.29,SE,138,3.0,6.0,63,0.00,,,0.00,Wunderground v.1.13,2013-02-01 17:54:00,
2013-02-01 11:57:00,-5.8,-15.5,30.29,SE,136,3.0,5.0,62,0.00,,,0.00,Wunderground v.1.13,2013-02-01 17:57:00,
2013-02-01 12:00:00,-5.4,-14.8,30.28,SE,136,3.0,3.0,63,0.00,,,0.00,Wunderground v.1.13,2013-02-01 18:00:00,
2013-02-01 12:02:00,-5.4,-15.1,30.28,SE,133,3.0,5.0,62,0.00,,,0.00,Wunderground v.1.13,2013-02-01 18:02:00,
2013-02-01 12:03:00,-5.5,-15.2,30.28,ESE,114,3.0,6.0,62,0.00,,,0.00,Wunderground v.1.13,2013-02-01 18:03:00,
2013-02-01 12:04:00,-5.7,-15.4,30.28,ESE,115,3.0,6.0,62,0.00,,,0.00,Wunderground v.1.13,2013-02-01 18:04:00,
2013-02-01 12:09:00,-5.2,-14.9,30.28,West,264,3.0,3.0,62,0.00,,,0.00,Wunderground v.1.13,2013-02-01 18:09:00,
2013-02-01 12:12:00,-5.0,-15.0,30.28,SW,232,2.0,3.0,61,0.00,,,0.00,Wunderground v.1.13,2013-02-01 18:12:00,
2013-02-01 12:16:00,-4.5,-14.2,30.28,SW,235,2.0,4.0,62,0.00,,,0.00,Wunderground v.1.13,2013-02-01 18:16:00,
2013-02-01 12:18:00,-4.3,-14.0,30.28,South,190,2.0,4.0,62,0.00,,,0.00,Wunderground v.1.13,2013-02-01 18:18:00,
2013-02-01 12:19:00,-4.2,-13.9,30.28,South,191,2.0,4.0,62,0.00,,,0.00,Wunderground v.1.13,2013-02-01 18:19:00,
2013-02-01 12:21:00,-4.3,-14.7,30.28,WSW,250,3.0,5.0,60,0.00,,,0.00,Wunderground v.1.13,2013-02-01 18:21:00,
2013-02-01 12:25:00,-4.7,-15.1,30.27,WSW,249,3.0,5.0,60,0.00,,,0.00,Wunderground v.1.13,2013-02-01 18:25:00,
2013-02-01 12:26:00,-4.8,-15.5,30.27,WSW,254,3.0,5.0,59,0.00,,,0.00,Wunderground v.1.13,2013-02-01 18:26:00,
2013-02-01 12:28:00,-4.9,-15.3,30.28,WSW,254,3.0,5.0,60,0.00,,,0.00,Wunderground v.1.13,2013-02-01 18:28:00,
2013-02-01 12:31:00,-4.6,-14.7,30.27,SSW,200,2.0,3.0,61,0.00,,,0.00,Wunderground v.1.13,2013-02-01 18:31:00,
2013-02-01 12:34:00,-4.1,-14.2,30.27,SSW,205,2.0,3.0,61,0.00,,,0.00,Wunderground v.1.13,2013-02-01 18:34:00,
2013-02-01 12:39:00,-3.6,-13.7,30.26,SE,139,2.0,3.0,61,0.00,,,0.00,Wunderground v.1.13,2013-02-01 18:39:00,
2013-02-01 12:40:00,-3.6,-13.7,30.26,SSE,150,2.0,3.0,61,0.00,,,0.00,Wunderground v.1.13,2013-02-01 18:40:00,
2013-02-01 12:41:00,-3.4,-13.5,30.26,SSE,150,2.0,4.0,61,0.00,,,0.00,Wunderground v.1.13,2013-02-01 18:41:00,
2013-02-01 12:46:00,-4.1,-14.8,30.26,SE,130,3.0,4.0,59,0.00,,,0.00,Wunderground v.1.13,2013-02-01 18:46:00,
2013-02-01 12:50:00,-3.6,-13.7,30.26,SE,132,3.0,3.0,61,0.00,,,0.00,Wunderground v.1.13,2013-02-01 18:50:00,
2013-02-01 12:52:00,-3.5,-13.6,30.26,ESE,118,3.0,7.0,61,0.00,,,0.00,Wunderground v.1.13,2013-02-01 18:52:00,
2013-02-01 12:53:00,-3.6,-14.0,30.26,ESE,119,3.0,7.0,60,0.00,,,0.00,Wunderground v.1.13,2013-02-01 18:53:00,
2013-02-01 12:59:00,-3.4,-13.8,30.26,SE,127,3.0,4.0,60,0.00,,,0.00,Wunderground v.1.13,2013-02-01 18:59:00,
2013-02-01 13:00:00,-3.3,-13.7,30.25,SE,127,3.0,3.0,60,0.00,,,0.00,Wunderground v.1.13,2013-02-01 19:00:00,
2013-02-01 13:01:00,-3.1,-13.6,30.25,SE,126,3.0,3.0,60,0.00,,,0.00,Wunderground v.1.13,2013-02-01 19:01:00,
2013-02-01 13:06:00,-2.4,-12.9,30.25,SE,126,1.0,1.0,60,0.00,,,0.00,Wunderground v.1.13,2013-02-01 19:06:00,
2013-02-01 13:07:00,-2.3,-13.1,30.25,SSW,194,1.0,3.0,59,0.00,,,0.00,Wunderground v.1.13,2013-02-01 19:07:00,
2013-02-01 13:12:00,-3.3,-14.1,30.25,SE,126,3.0,8.0,59,0.00,,,0.00,Wunderground v.1.13,2013-02-01 19:12:00,
2013-02-01 13:13:00,-3.3,-14.1,30.25,SE,133,3.0,8.0,59,0.00,,,0.00,Wunderground v.1.13,2013-02-01 19:13:00,
2013-02-01 13:17:00,-3.6,-13.7,30.25,ESE,122,5.0,6.0,61,0.00,,,0.00,Wunderground v.1.13,2013-02-01 19:17:00,
2013-02-01 13:18:00,-3.6,-14.0,30.24,ESE,122,5.0,6.0,60,0.00,,,0.00,Wunderground v.1.13,2013-02-01 19:18:00,
2013-02-01 13:20:00,-3.4,-13.5,30.24,SSE,150,4.0,4.0,61,0.00,,,0.00,Wunderground v.1.13,2013-02-01 19:20:00,
2013-02-01 13:25:00,-2.8,-12.9,30.24,SE,126,3.0,3.0,61,0.00,,,0.00,Wunderground v.1.13,2013-02-01 19:25:00,
2013-02-01 13:28:00,-2.6,-12.7,30.24,SSW,203,2.0,3.0,61,0.00,,,0.00,Wunderground v.1.13,2013-02-01 19:28:00,
2013-02-01 13:30:00,-2.3,-12.5,30.23,SE,139,2.0,5.0,61,0.00,,,0.00,Wunderground v.1.13,2013-02-01 19:30:00,
2013-02-01 13:31:00,-2.2,-12.4,30.23,SE,139,2.0,5.0,61,0.00,,,0.00,Wunderground v.1.13,2013-02-01 19:31:00,
2013-02-01 13:32:00,-2.2,-12.4,30.23,SSE,163,2.0,5.0,61,0.00,,,0.00,Wunderground v.1.13,2013-02-01 19:32:00,
2013-02-01 13:37:00,-2.3,-12.8,30.23,South,182,3.0,6.0,60,0.00,,,0.00,Wunderground v.1.13,2013-02-01 19:37:00,
2013-02-01 13:39:00,-2.1,-12.6,30.23,SE,144,3.0,6.0,60,0.00,,,0.00,Wunderground v.1.13,2013-02-01 19:39:00,
2013-02-01 13:44:00,-1.9,-12.1,30.23,SE,136,3.0,6.0,61,0.00,,,0.00,Wunderground v.1.13,2013-02-01 19:44:00,
2013-02-01 13:45:00,-1.7,-11.9,30.23,SE,138,3.0,3.0,61,0.00,,,0.00,Wunderground v.1.13,2013-02-01 19:45:00,
2013-02-01 13:46:00,-1.5,-11.4,30.22,ESE,123,3.0,8.0,62,0.00,,,0.00,Wunderground v.1.13,2013-02-01 19:46:00,
2013-02-01 13:51:00,-2.0,-12.2,30.22,SE,133,4.0,4.0,61,0.00,,,0.00,Wunderground v.1.13,2013-02-01 19:51:00,
2013-02-01 13:52:00,-1.9,-12.1,30.22,SE,128,4.0,5.0,61,0.00,,,0.00,Wunderground v.1.13,2013-02-01 19:52:00,
2013-02-01 13:53:00,-1.9,-12.1,30.22,SE,128,4.0,5.0,61,0.00,,,0.00,Wunderground v.1.13,2013-02-01 19:53:00,
2013-02-01 13:54:00,-2.0,-12.5,30.22,SE,126,4.0,5.0,60,0.00,,,0.00,Wunderground v.1.13,2013-02-01 19:54:00,
2013-02-01 13:57:00,-1.6,-11.8,30.22,SW,236,4.0,4.0,61,0.00,,,0.00,Wunderground v.1.13,2013-02-01 19:57:00,
2013-02-01 13:59:00,-1.4,-11.6,30.22,SE,133,3.0,5.0,61,0.00,,,0.00,Wunderground v.1.13,2013-02-01 19:59:00,
2013-02-01 14:03:00,-1.8,-12.3,30.22,SSW,194,4.0,8.0,60,0.00,,,0.00,Wunderground v.1.13,2013-02-01 20:03:00,
2013-02-01 14:06:00,-1.6,-12.1,30.22,SE,128,4.0,6.0,60,0.00,,,0.00,Wunderground v.1.13,2013-02-01 20:06:00,
2013-02-01 14:07:00,-1.6,-12.1,30.22,SE,128,4.0,6.0,60,0.00,,,0.00,Wunderground v.1.13,2013-02-01 20:07:00,
2013-02-01 14:13:00,-2.0,-12.5,30.22,ESE,120,4.0,11.0,60,0.00,,,0.00,Wunderground v.1.13,2013-02-01 20:13:00,
2013-02-01 14:14:00,-2.1,-12.3,30.22,SE,128,4.0,11.0,61,0.00,,,0.00,Wunderground v.1.13,2013-02-01 20:14:00,
2013-02-01 14:18:00,-2.2,-12.4,30.22,ESE,119,6.0,7.0,61,0.00,,,0.00,Wunderground v.1.13,2013-02-01 20:18:00,
2013-02-01 14:22:00,-2.0,-11.9,30.22,SE,130,5.0,6.0,62,0.00,,,0.00,Wunderground v.1.13,2013-02-01 20:22:00,
2013-02-01 14:25:00,-1.9,-11.8,30.22,SE,128,4.0,10.0,62,0.00,,,0.00,Wunderground v.1.13,2013-02-01 20:25:00,
2013-02-01 14:28:00,-2.1,-12.3,30.21,SE,126,4.0,10.0,61,0.00,,,0.00,Wunderground v.1.13,2013-02-01 20:28:00,
2013-02-01 14:32:00,-2.1,-11.9,30.21,SE,125,5.0,5.0,62,0.00,,,0.00,Wunderground v.1.13,2013-02-01 20:32:00,
2013-02-01 14:34:00,-2.0,-11.9,30.21,SE,130,5.0,5.0,62,0.00,,,0.00,Wunderground v.1.13,2013-02-01 20:34:00,
2013-02-01 14:38:00,-1.4,-11.0,30.21,SW,227,4.0,5.0,63,0.00,,,0.00,Wunderground v.1.13,2013-02-01 20:38:00,
2013-02-01 14:39:00,-1.2,-10.8,30.21,SW,227,4.0,5.0,63,0.00,,,0.00,Wunderground v.1.13,2013-02-01 20:39:00,
2013-02-01 14:40:00,-1.0,-10.6,30.21,West,259,3.0,3.0,63,0.00,,,0.00,Wunderground v.1.13,2013-02-01 20:40:00,
2013-02-01 14:45:00,-0.6,-10.8,30.20,South,187,1.0,5.0,61,0.00,,,0.00,Wunderground v.1.13,2013-02-01 20:45:00,
2013-02-01 14:46:00,-0.5,-10.8,30.20,SW,218,2.0,5.0,61,0.00,,,0.00,Wunderground v.1.13,2013-02-01 20:46:00,
2013-02-01 14:47:00,-0.5,-10.8,30.20,SW,215,1.0,5.0,61,0.00,,,0.00,Wunderground v.1.13,2013-02-01 20:47:00,
2013-02-01 14:50:00,-0.6,-11.2,30.20,SE,146,2.0,3.0,60,0.00,,,0.00,Wunderground v.1.13,2013-02-01 20:50:00,
2013-02-01 14:53:00,-1.0,-11.9,30.20,SE,131,3.0,5.0,59,0.00,,,0.00,Wunderground v.1.13,2013-02-01 20:53:00,
2013-02-01 14:54:00,-1.0,-11.6,30.20,SE,133,3.0,5.0,60,0.00,,,0.00,Wunderground v.1.13,2013-02-01 20:54:00,
2013-02-01 14:55:00,-1.0,-11.6,30.20,SE,130,3.0,3.0,60,0.00,,,0.00,Wunderground v.1.13,2013-02-01 20:55:00,
2013-02-01 14:56:00,-1.1,-11.7,30.20,SSE,156,3.0,5.0,60,0.00,,,0.00,Wunderground v.1.13,2013-02-01 20:56:00,
2013-02-01 15:02:00,-1.4,-11.9,30.20,South,183,3.0,5.0,60,0.00,,,0.00,Wunderground v.1.13,2013-02-01 21:02:00,
2013-02-01 15:05:00,-1.4,-11.9,30.20,ESE,122,4.0,6.0,60,0.00,,,0.00,Wunderground v.1.13,2013-02-01 21:05:00,
2013-02-01 15:07:00,-1.4,-11.6,30.20,SSE,163,4.0,6.0,61,0.00,,,0.00,Wunderground v.1.13,2013-02-01 21:07:00,
2013-02-01 15:13:00,-1.0,-10.9,30.20,SSE,161,3.0,3.0,62,0.00,,,0.00,Wunderground v.1.13,2013-02-01 21:13:00,
2013-02-01 15:15:00,-0.9,-11.1,30.20,SW,214,3.0,3.0,61,0.00,,,0.00,Wunderground v.1.13,2013-02-01 21:15:00,
2013-02-01 15:17:00,-0.9,-11.1,30.20,SE,132,2.0,5.0,61,0.00,,,0.00,Wunderground v.1.13,2013-02-01 21:17:00,
2013-02-01 15:18:00,-1.0,-11.2,30.20,SE,140,2.0,5.0,61,0.00,,,0.00,Wunderground v.1.13,2013-02-01 21:18:00,
2013-02-01 15:20:00,-1.0,-11.2,30.20,SE,142,2.0,2.0,61,0.00,,,0.00,Wunderground v.1.13,2013-02-01 21:20:00,
2013-02-01 15:23:00,-1.0,-11.2,30.20,SSW,196,3.0,4.0,61,0.00,,,0.00,Wunderground v.1.13,2013-02-01 21:23:00,
2013-02-01 15:25:00,-0.9,-11.1,30.20,WSW,240,3.0,6.0,61,0.00,,,0.00,Wunderground v.1.13,2013-02-01 21:25:00,
2013-02-01 15:27:00,-0.9,-11.1,30.20,SW,234,3.0,6.0,61,0.00,,,0.00,Wunderground v.1.13,2013-02-01 21:27:00,
2013-02-01 15:30:00,-0.6,-10.5,30.20,SSW,208,2.0,2.0,62,0.00,,,0.00,Wunderground v.1.13,2013-02-01 21:30:00,
2013-02-01 15:31:00,-0.6,-10.5,30.19,SSW,207,2.0,2.0,62,0.00,,,0.00,Wunderground v.1.13,2013-02-01 21:31:00,
2013-02-01 15:32:00,-0.6,-10.5,30.19,SE,139,2.0,5.0,62,0.00,,,0.00,Wunderground v.1.13,2013-02-01 21:32:00,
2013-02-01 15:37:00,-0.8,-10.7,30.19,SE,138,2.0,3.0,62,0.00,,,0.00,Wunderground v.1.13,2013-02-01 21:37:00,
2013-02-01 15:38:00,-0.8,-11.0,30.19,SE,138,2.0,7.0,61,0.00,,,0.00,Wunderground v.1.13,2013-02-01 21:38:00,
2013-02-01 15:41:00,-0.8,-10.4,30.19,SSE,159,2.0,2.0,63,0.00,,,0.00,Wunderground v.1.13,2013-02-01 21:41:00,
2013-02-01 15:44:00,-0.8,-10.7,30.19,SE,144,2.0,5.0,62,0.00,,,0.00,Wunderground v.1.13,2013-02-01 21:44:00,
2013-02-01 15:45:00,-0.8,-10.4,30.19,SE,132,3.0,4.0,63,0.00,,,0.00,Wunderground v.1.13,2013-02-01 21:45:00,
2013-02-01 15:47:00,-0.9,-10.5,30.19,SE,132,3.0,5.0,63,0.00,,,0.00,Wunderground v.1.13,2013-02-01 21:47:00,
2013-02-01 15:48:00,-1.0,-10.6,30.19,SE,136,3.0,5.0,63,0.00,,,0.00,Wunderground v.1.13,2013-02-01 21:48:00,
2013-02-01 15:50:00,-1.1,-10.7,30.19,SE,136,3.0,3.0,63,0.00,,,0.00,Wunderground v.1.13,2013-02-01 21:50:00,
2013-02-01 15:53:00,-1.1,-10.4,30.19,South,175,3.0,5.0,64,0.00,,,0.00,Wunderground v.1.13,2013-02-01 21:53:00,
2013-02-01 15:54:00,-1.1,-10.4,30.19,South,175,3.0,5.0,64,0.00,,,0.00,Wunderground v.1.13,2013-02-01 21:54:00,
2013-02-01 15:57:00,-1.1,-10.0,30.19,South,171,3.0,3.0,65,0.00,,,0.00,Wunderground v.1.13,2013-02-01 21:57:00,
2013-02-01 15:59:00,-1.0,-9.6,30.19,SW,236,2.0,4.0,66,0.00,,,0.00,Wunderground v.1.13,2013-02-01 21:59:00,
2013-02-01 16:03:00,-0.9,-9.2,30.19,South,188,2.0,6.0,67,0.00,,,0.00,Wunderground v.1.13,2013-02-01 22:03:00,
2013-02-01 16:04:00,-0.8,-9.1,30.19,South,188,2.0,6.0,67,0.00,,,0.00,Wunderground v.1.13,2013-02-01 22:04:00,
2013-02-01 16:09:00,-1.0,-9.3,30.18,SE,141,2.0,5.0,67,0.00,,,0.00,Wunderground v.1.13,2013-02-01 22:09:00,
2013-02-01 16:10:00,-1.2,-9.5,30.18,ESE,117,3.0,4.0,67,0.00,,,0.00,Wunderground v.1.13,2013-02-01 22:10:00,
2013-02-01 16:11:00,-1.3,-9.6,30.18,ESE,117,3.0,4.0,67,0.00,,,0.00,Wunderground v.1.13,2013-02-01 22:11:00,
2013-02-01 16:15:00,-1.3,-9.0,30.18,ESE,122,2.0,2.0,69,0.00,,,0.00,Wunderground v.1.13,2013-02-01 22:15:00,
2013-02-01 16:16:00,-1.2,-8.9,30.18,ESE,122,2.0,2.0,69,0.00,,,0.00,Wunderground v.1.13,2013-02-01 22:16:00,
2013-02-01 16:17:00,-1.2,-8.6,30.18,ESE,122,2.0,2.0,70,0.00,,,0.00,Wunderground v.1.13,2013-02-01 22:17:00,
2013-02-01 16:21:00,-1.1,-8.5,30.18,ESE,122,1.0,2.0,70,0.00,,,0.00,Wunderground v.1.13,2013-02-01 22:21:00,
2013-02-01 16:23:00,-1.1,-8.5,30.18,ESE,122,1.0,2.0,70,0.00,,,0.00,Wunderground v.1.13,2013-02-01 22:23:00,
2013-02-01 16:27:00,-1.3,-8.4,30.17,ESE,122,2.0,5.0,71,0.00,,,0.00,Wunderground v.1.13,2013-02-01 22:27:00,
2013-02-01 16:30:00,-1.5,-8.3,30.17,ESE,122,2.0,6.0,72,0.00,,,0.00,Wunderground v.1.13,2013-02-01 22:30:00,
2013-02-01 16:31:00,-1.5,-8.3,30.17,ESE,123,2.0,6.0,72,0.00,,,0.00,Wunderground v.1.13,2013-02-01 22:31:00,
2013-02-01 16:32:00,-1.6,-8.4,30.17,ESE,122,3.0,6.0,72,0.00,,,0.00,Wunderground v.1.13,2013-02-01 22:32:00,
2013-02-01 16:34:00,-1.6,-8.2,30.17,ESE,123,3.0,6.0,73,0.00,,,0.00,Wunderground v.1.13,2013-02-01 22:34:00,
2013-02-01 16:38:00,-1.4,-7.7,30.18,ESE,123,2.0,3.0,74,0.00,,,0.00,Wunderground v.1.13,2013-02-01 22:38:00,
2013-02-01 16:41:00,-1.3,-7.6,30.17,ESE,122,1.0,1.0,74,0.00,,,0.00,Wunderground v.1.13,2013-02-01 22:41:00,
2013-02-01 16:42:00,-1.3,-7.6,30.18,ESE,123,1.0,1.0,74,0.00,,,0.00,Wunderground v.1.13,2013-02-01 22:42:00,
2013-02-01 16:44:00,-1.2,-7.2,30.18,ESE,123,0.0,1.0,75,0.00,,,0.00,Wunderground v.1.13,2013-02-01 22:44:00,
2013-02-01 16:46:00,-1.1,-7.1,30.17,ESE,123,0.0,0.0,75,0.00,,,0.00,Wunderground v.1.13,2013-02-01 22:46:00,
2013-02-01 16:48:00,-1.1,-7.1,30.18,ESE,123,0.0,0.0,75,0.00,,,0.00,Wunderground v.1.13,2013-02-01 22:48:00,
2013-02-01 16:50:00,-1.1,-7.1,30.17,ESE,122,0.0,1.0,75,0.00,,,0.00,Wunderground v.1.13,2013-02-01 22:50:00,
2013-02-01 16:52:00,-1.2,-7.2,30.17,ESE,123,0.0,1.0,75,0.00,,,0.00,Wunderground v.1.13,2013-02-01 22:52:00,
2013-02-01 16:54:00,-1.2,-7.2,30.17,ESE,122,0.0,1.0,75,0.00,,,0.00,Wunderground v.1.13,2013-02-01 22:54:00,
2013-02-01 16:55:00,-1.3,-7.3,30.17,ESE,123,0.0,0.0,75,0.00,,,0.00,Wunderground v.1.13,2013-02-01 22:55:00,
2013-02-01 16:56:00,-1.3,-7.3,30.17,ESE,123,0.0,0.0,75,0.00,,,0.00,Wunderground v.1.13,2013-02-01 22:56:00,
2013-02-01 17:00:00,-1.6,-7.6,30.17,ESE,123,0.0,0.0,75,0.00,,,0.00,Wunderground v.1.13,2013-02-01 23:00:00,
2013-02-01 17:01:00,-1.6,-7.6,30.17,ESE,122,0.0,1.0,75,0.00,,,0.00,Wunderground v.1.13,2013-02-01 23:01:00,
2013-02-01 17:02:00,-1.7,-7.7,30.17,ESE,122,0.0,1.0,75,0.00,,,0.00,Wunderground v.1.13,2013-02-01 23:02:00,
2013-02-01 17:04:00,-1.7,-7.4,30.17,ESE,123,1.0,1.0,76,0.00,,,0.00,Wunderground v.1.13,2013-02-01 23:04:00,
2013-02-01 17:08:00,-1.8,-7.5,30.17,ESE,123,1.0,1.0,76,0.00,,,0.00,Wunderground v.1.13,2013-02-01 23:08:00,
2013-02-01 17:10:00,-1.8,-7.5,30.17,ESE,122,1.0,1.0,76,0.00,,,0.00,Wunderground v.1.13,2013-02-01 23:10:00,
2013-02-01 17:11:00,-1.8,-7.5,30.17,ESE,123,1.0,1.0,76,0.00,,,0.00,Wunderground v.1.13,2013-02-01 23:11:00,
2013-02-01 17:16:00,-1.9,-7.3,30.17,ESE,123,1.0,1.0,77,0.00,,,0.00,Wunderground v.1.13,2013-02-01 23:16:00,
2013-02-01 17:17:00,-1.9,-7.3,30.17,ESE,122,1.0,2.0,77,0.00,,,0.00,Wunderground v.1.13,2013-02-01 23:17:00,
2013-02-01 17:19:00,-1.9,-7.3,30.17,ESE,123,1.0,2.0,77,0.00,,,0.00,Wunderground v.1.13,2013-02-01 23:19:00,
2013-02-01 17:24:00,-2.0,-7.2,30.16,ESE,122,2.0,4.0,78,0.00,,,0.00,Wunderground v.1.13,2013-02-01 23:24:00,
2013-02-01 17:25:00,-1.9,-7.3,30.16,ESE,122,2.0,4.0,77,0.00,,,0.00,Wunderground v.1.13,2013-02-01 23:25:00,
2013-02-01 17:27:00,-2.0,-7.2,30.16,ESE,123,2.0,4.0,78,0.00,,,0.00,Wunderground v.1.13,2013-02-01 23:27:00,
2013-02-01 17:31:00,-2.0,-7.2,30.16,ESE,123,2.0,3.0,78,0.00,,,0.00,Wunderground v.1.13,2013-02-01 23:31:00,
2013-02-01 17:33:00,-2.0,-7.2,30.16,ESE,123,2.0,4.0,78,0.00,,,0.00,Wunderground v.1.13,2013-02-01 23:33:00,
2013-02-01 17:34:00,-2.0,-7.2,30.16,ESE,123,2.0,4.0,78,0.00,,,0.00,Wunderground v.1.13,2013-02-01 23:34:00,
2013-02-01 17:38:00,-2.0,-6.9,30.16,ESE,123,3.0,4.0,79,0.00,,,0.00,Wunderground v.1.13,2013-02-01 23:38:00,
2013-02-01 17:39:00,-2.0,-6.9,30.16,ESE,123,3.0,4.0,79,0.00,,,0.00,Wunderground v.1.13,2013-02-01 23:39:00,
2013-02-01 17:40:00,-2.0,-6.9,30.16,ESE,122,3.0,3.0,79,0.00,,,0.00,Wunderground v.1.13,2013-02-01 23:40:00,
2013-02-01 17:42:00,-1.9,-6.8,30.16,ESE,123,3.0,3.0,79,0.00,,,0.00,Wunderground v.1.13,2013-02-01 23:42:00,
2013-02-01 17:45:00,-1.9,-6.8,30.16,ESE,123,2.0,2.0,79,0.00,,,0.00,Wunderground v.1.13,2013-02-01 23:45:00,
2013-02-01 17:50:00,-2.0,-6.9,30.16,ESE,122,2.0,2.0,79,0.00,,,0.00,Wunderground v.1.13,2013-02-01 23:50:00,
2013-02-01 17:51:00,-1.9,-6.8,30.16,ESE,123,2.0,2.0,79,0.00,,,0.00,Wunderground v.1.13,2013-02-01 23:51:00,
2013-02-01 17:52:00,-2.0,-6.9,30.16,ESE,123,2.0,2.0,79,0.00,,,0.00,Wunderground v.1.13,2013-02-01 23:52:00,
2013-02-01 17:54:00,-2.0,-6.7,30.16,ESE,122,2.0,2.0,80,0.00,,,0.00,Wunderground v.1.13,2013-02-01 23:54:00,
2013-02-01 17:58:00,-2.0,-6.7,30.16,ESE,122,2.0,4.0,80,0.00,,,0.00,Wunderground v.1.13,2013-02-01 23:58:00,
2013-02-01 17:59:00,-1.9,-6.6,30.16,ESE,122,2.0,4.0,80,0.00,,,0.00,Wunderground v.1.13,2013-02-01 23:59:00,
2013-02-01 18:01:00,-1.9,-6.6,30.16,ESE,123,2.0,4.0,80,0.00,,,0.00,Wunderground v.1.13,2013-02-02 00:01:00,
2013-02-01 18:04:00,-1.9,-6.6,30.16,ESE,123,2.0,5.0,80,0.00,,,0.00,Wunderground v.1.13,2013-02-02 00:04:00,
2013-02-01 18:05:00,-1.8,-6.5,30.16,ESE,123,2.0,2.0,80,0.00,,,0.00,Wunderground v.1.13,2013-02-02 00:05:00,
2013-02-01 18:06:00,-1.8,-6.5,30.16,ESE,122,2.0,2.0,80,0.00,,,0.00,Wunderground v.1.13,2013-02-02 00:06:00,
2013-02-01 18:10:00,-1.7,-6.4,30.17,ESE,123,2.0,2.0,80,0.00,,,0.00,Wunderground v.1.13,2013-02-02 00:10:00,
2013-02-01 18:11:00,-1.7,-6.4,30.17,ESE,122,2.0,2.0,80,0.00,,,0.00,Wunderground v.1.13,2013-02-02 00:11:00,
2013-02-01 18:13:00,-1.7,-6.4,30.16,ESE,123,2.0,2.0,80,0.00,,,0.00,Wunderground v.1.13,2013-02-02 00:13:00,
2013-02-01 18:16:00,-1.7,-6.1,30.16,ESE,123,1.0,1.0,81,0.00,,,0.00,Wunderground v.1.13,2013-02-02 00:16:00,
2013-02-01 18:17:00,-1.7,-6.1,30.16,ESE,123,1.0,1.0,81,0.00,,,0.00,Wunderground v.1.13,2013-02-02 00:17:00,
2013-02-01 18:20:00,-1.7,-6.1,30.17,ESE,122,1.0,1.0,81,0.00,,,0.00,Wunderground v.1.13,2013-02-02 00:20:00,
2013-02-01 18:21:00,-1.7,-6.1,30.16,ESE,123,1.0,1.0,81,0.00,,,0.00,Wunderground v.1.13,2013-02-02 00:21:00,
2013-02-01 18:25:00,-1.6,-6.0,30.16,ESE,123,0.0,0.0,81,0.00,,,0.00,Wunderground v.1.13,2013-02-02 00:25:00,
2013-02-01 18:27:00,-1.5,-5.9,30.17,ESE,122,0.0,1.0,81,0.00,,,0.00,Wunderground v.1.13,2013-02-02 00:27:00,
2013-02-01 18:28:00,-1.6,-6.0,30.17,ESE,122,0.0,1.0,81,0.00,,,0.00,Wunderground v.1.13,2013-02-02 00:28:00,
2013-02-01 18:29:00,-1.5,-5.9,30.17,ESE,123,0.0,1.0,81,0.00,,,0.00,Wunderground v.1.13,2013-02-02 00:29:00,
2013-02-01 18:33:00,-1.6,-6.0,30.17,ESE,123,1.0,1.0,81,0.00,,,0.00,Wunderground v.1.13,2013-02-02 00:33:00,
2013-02-01 18:37:00,-1.6,-6.0,30.17,ESE,123,1.0,1.0,81,0.00,,,0.00,Wunderground v.1.13,2013-02-02 00:37:00,
2013-02-01 18:38:00,-1.6,-6.0,30.17,ESE,122,1.0,1.0,81,0.00,,,0.00,Wunderground v.1.13,2013-02-02 00:38:00,
2013-02-01 18:39:00,-1.6,-6.0,30.17,ESE,123,1.0,1.0,81,0.00,,,0.00,Wunderground v.1.13,2013-02-02 00:39:00,
2013-02-01 18:40:00,-1.6,-6.0,30.17,ESE,123,1.0,1.0,81,0.00,,,0.00,Wunderground v.1.13,2013-02-02 00:40:00,
2013-02-01 18:43:00,-1.6,-6.0,30.17,ESE,123,1.0,1.0,81,0.00,,,0.00,Wunderground v.1.13,2013-02-02 00:43:00,
2013-02-01 18:45:00,-1.6,-6.0,30.16,ESE,123,1.0,1.0,81,0.00,,,0.00,Wunderground v.1.13,2013-02-02 00:45:00,
2013-02-01 18:46:00,-1.5,-5.9,30.16,ESE,123,1.0,1.0,81,0.00,,,0.00,Wunderground v.1.13,2013-02-02 00:46:00,
2013-02-01 18:52:00,-1.5,-5.9,30.16,ESE,123,1.0,2.0,81,0.00,,,0.00,Wunderground v.1.13,2013-02-02 00:52:00,
2013-02-01 18:53:00,-1.5,-5.9,30.16,ESE,123,1.0,2.0,81,0.00,,,0.00,Wunderground v.1.13,2013-02-02 00:53:00,
2013-02-01 18:54:00,-1.5,-5.7,30.16,ESE,123,1.0,2.0,82,0.00,,,0.00,Wunderground v.1.13,2013-02-02 00:54:00,
2013-02-01 18:57:00,-1.5,-5.9,30.16,ESE,123,1.0,2.0,81,0.00,,,0.00,Wunderground v.1.13,2013-02-02 00:57:00,
2013-02-01 19:01:00,-1.5,-5.9,30.16,ESE,123,1.0,1.0,81,0.00,,,0.00,Wunderground v.1.13,2013-02-02 01:01:00,
2013-02-01 19:02:00,-1.5,-5.9,30.16,ESE,123,1.0,1.0,81,0.00,,,0.00,Wunderground v.1.13,2013-02-02 01:02:00,
2013-02-01 19:05:00,-1.4,-5.6,30.16,ESE,123,1.0,2.0,82,0.00,,,0.00,Wunderground v.1.13,2013-02-02 01:05:00,
2013-02-01 19:06:00,-1.4,-5.6,30.16,ESE,123,1.0,2.0,82,0.00,,,0.00,Wunderground v.1.13,2013-02-02 01:06:00,
2013-02-01 19:09:00,-1.4,-5.6,30.16,ESE,123,1.0,4.0,82,0.00,,,0.00,Wunderground v.1.13,2013-02-02 01:09:00,
2013-02-01 19:12:00,-1.4,-5.6,30.16,ESE,122,1.0,2.0,82,0.00,,,0.00,Wunderground v.1.13,2013-02-02 01:12:00,
2013-02-01 19:14:00,-1.4,-5.6,30.16,ESE,123,1.0,2.0,82,0.00,,,0.00,Wunderground v.1.13,2013-02-02 01:14:00,
2013-02-01 19:15:00,-1.4,-5.6,30.16,ESE,123,1.0,2.0,82,0.00,,,0.00,Wunderground v.1.13,2013-02-02 01:15:00,
2013-02-01 19:19:00,-1.4,-5.6,30.16,ESE,123,1.0,2.0,82,0.00,,,0.00,Wunderground v.1.13,2013-02-02 01:19:00,
2013-02-01 19:21:00,-1.4,-5.6,30.15,ESE,123,1.0,2.0,82,0.00,,,0.00,Wunderground v.1.13,2013-02-02 01:21:00,
2013-02-01 19:22:00,-1.4,-5.6,30.16,ESE,123,1.0,2.0,82,0.00,,,0.00,Wunderground v.1.13,2013-02-02 01:22:00,
2013-02-01 19:24:00,-1.4,-5.6,30.16,ESE,122,1.0,2.0,82,0.00,,,0.00,Wunderground v.1.13,2013-02-02 01:24:00,
2013-02-01 19:25:00,-1.4,-5.6,30.16,ESE,123,1.0,2.0,82,0.00,,,0.00,Wunderground v.1.13,2013-02-02 01:25:00,
2013-02-01 19:26:00,-1.4,-5.6,30.16,ESE,123,1.0,2.0,82,0.00,,,0.00,Wunderground v.1.13,2013-02-02 01:26:00,
2013-02-01 19:30:00,-1.3,-5.5,30.16,ESE,121,1.0,1.0,82,0.00,,,0.00,Wunderground v.1.13,2013-02-02 01:30:00,
2013-02-01 19:34:00,-1.3,-5.5,30.16,ESE,121,1.0,3.0,82,0.00,,,0.00,Wunderground v.1.13,2013-02-02 01:34:00,
2013-02-01 19:36:00,-1.3,-5.5,30.16,ESE,121,1.0,2.0,82,0.00,,,0.00,Wunderground v.1.13,2013-02-02 01:36:00,
2013-02-01 19:40:00,-1.3,-5.5,30.16,ESE,121,2.0,2.0,82,0.00,,,0.00,Wunderground v.1.13,2013-02-02 01:40:00,
2013-02-01 19:41:00,-1.3,-5.5,30.16,ESE,121,2.0,2.0,82,0.00,,,0.00,Wunderground v.1.13,2013-02-02 01:41:00,
2013-02-01 19:42:00,-1.3,-5.5,30.16,ESE,121,2.0,2.0,82,0.00,,,0.00,Wunderground v.1.13,2013-02-02 01:42:00,
2013-02-01 19:43:00,-1.3,-5.5,30.16,ESE,121,2.0,2.0,82,0.00,,,0.00,Wunderground v.1.13,2013-02-02 01:43:00,
2013-02-01 19:49:00,-1.2,-5.4,30.16,ESE,121,2.0,2.0,82,0.00,,,0.00,Wunderground v.1.13,2013-02-02 01:49:00,
2013-02-01 19:50:00,-1.2,-5.4,30.16,ESE,121,2.0,2.0,82,0.00,,,0.00,Wunderground v.1.13,2013-02-02 01:50:00,
2013-02-01 19:53:00,-1.1,-5.0,30.16,ESE,121,1.0,2.0,83,0.00,,,0.00,Wunderground v.1.13,2013-02-02 01:53:00,
2013-02-01 19:56:00,-1.1,-5.0,30.16,ESE,121,2.0,2.0,83,0.00,,,0.00,Wunderground v.1.13,2013-02-02 01:56:00,
2013-02-01 19:58:00,-1.1,-5.3,30.16,ESE,121,2.0,2.0,82,0.00,,,0.00,Wunderground v.1.13,2013-02-02 01:58:00,
2013-02-01 20:03:00,-1.0,-4.9,30.15,NNE,29,2.0,3.0,83,0.00,,,0.00,Wunderground v.1.13,2013-02-02 02:03:00,
2013-02-01 20:04:00,-1.0,-4.9,30.15,NNE,29,2.0,3.0,83,0.00,,,0.00,Wunderground v.1.13,2013-02-02 02:04:00,
2013-02-01 20:07:00,-0.9,-4.8,30.15,NNE,29,2.0,2.0,83,0.00,,,0.00,Wunderground v.1.13,2013-02-02 02:07:00,
2013-02-01 20:13:00,-1.0,-5.2,30.15,NNE,29,2.0,2.0,82,0.00,,,0.00,Wunderground v.1.13,2013-02-02 02:13:00,
2013-02-01 20:14:00,-1.0,-5.2,30.15,NNE,29,2.0,2.0,82,0.00,,,0.00,Wunderground v.1.13,2013-02-02 02:14:00,
2013-02-01 20:15:00,-1.0,-5.2,30.15,NNE,29,2.0,2.0,82,0.00,,,0.00,Wunderground v.1.13,2013-02-02 02:15:00,
2013-02-01 20:21:00,-1.0,-4.9,30.15,NNE,30,1.0,2.0,83,0.00,,,0.00,Wunderground v.1.13,2013-02-02 02:21:00,
2013-02-01 20:22:00,-1.0,-4.9,30.15,NE,51,1.0,3.0,83,0.00,,,0.00,Wunderground v.1.13,2013-02-02 02:22:00,
2013-02-01 20:26:00,-1.0,-4.9,30.15,NE,39,2.0,3.0,83,0.00,,,0.00,Wunderground v.1.13,2013-02-02 02:26:00,
2013-02-01 20:27:00,-1.0,-4.9,30.14,NE,39,2.0,3.0,83,0.00,,,0.00,Wunderground v.1.13,2013-02-02 02:27:00,
2013-02-01 20:30:00,-1.0,-4.9,30.14,NE,40,2.0,2.0,83,0.00,,,0.00,Wunderground v.1.13,2013-02-02 02:30:00,
2013-02-01 20:33:00,-1.0,-4.9,30.14,NE,40,3.0,3.0,83,0.00,,,0.00,Wunderground v.1.13,2013-02-02 02:33:00,
2013-02-01 20:35:00,-1.0,-4.9,30.14,NE,37,3.0,3.0,83,0.00,,,0.00,Wunderground v.1.13,2013-02-02 02:35:00,
2013-02-01 20:41:00,-1.0,-4.9,30.14,NE,40,3.0,3.0,83,0.00,,,0.00,Wunderground v.1.13,2013-02-02 02:41:00,
2013-02-01 20:44:00,-1.0,-4.9,30.14,NE,52,2.0,4.0,83,0.00,,,0.00,Wunderground v.1.13,2013-02-02 02:44:00,
2013-02-01 20:46:00,-1.0,-4.9,30.14,NE,40,2.0,2.0,83,0.00,,,0.00,Wunderground v.1.13,2013-02-02 02:46:00,
2013-02-01 20:51:00,-0.9,-4.6,30.14,NNE,28,2.0,3.0,84,0.00,,,0.00,Wunderground v.1.13,2013-02-02 02:51:00,
2013-02-01 20:52:00,-0.9,-4.6,30.14,NNE,32,2.0,5.0,84,0.00,,,0.00,Wunderground v.1.13,2013-02-02 02:52:00,
2013-02-01 20:54:00,-1.0,-4.7,30.14,NE,46,3.0,5.0,84,0.00,,,0.00,Wunderground v.1.13,2013-02-02 02:54:00,
2013-02-01 20:55:00,-1.0,-4.7,30.14,ENE,63,3.0,4.0,84,0.00,,,0.00,Wunderground v.1.13,2013-02-02 02:55:00,
2013-02-01 20:58:00,-1.0,-4.9,30.14,NE,49,3.0,4.0,83,0.00,,,0.00,Wunderground v.1.13,2013-02-02 02:58:00,
2013-02-01 21:00:00,-1.0,-4.9,30.14,ENE,60,3.0,3.0,83,0.00,,,0.00,Wunderground v.1.13,2013-02-02 03:00:00,
2013-02-01 21:01:00,-1.0,-4.9,30.14,NE,42,3.0,3.0,83,0.00,,,0.00,Wunderground v.1.13,2013-02-02 03:01:00,
2013-02-01 21:04:00,-1.0,-4.7,30.14,ENE,59,3.0,3.0,84,0.00,,,0.00,Wunderground v.1.13,2013-02-02 03:04:00,
2013-02-01 21:06:00,-1.0,-4.7,30.14,NE,43,3.0,5.0,84,0.00,,,0.00,Wunderground v.1.13,2013-02-02 03:06:00,
2013-02-01 21:08:00,-1.0,-4.7,30.14,NE,42,3.0,5.0,84,0.00,,,0.00,Wunderground v.1.13,2013-02-02 03:08:00,
2013-02-01 21:12:00,-1.0,-4.7,30.14,NE,45,3.0,3.0,84,0.00,,,0.00,Wunderground v.1.13,2013-02-02 03:12:00,
2013-02-01 21:15:00,-1.0,-4.7,30.14,NE,46,3.0,3.0,84,0.00,,,0.00,Wunderground v.1.13,2013-02-02 03:15:00,
2013-02-01 21:16:00,-1.0,-4.7,30.13,NE,47,3.0,4.0,84,0.00,,,0.00,Wunderground v.1.13,2013-02-02 03:16:00,
2013-02-01 21:18:00,-1.0,-4.7,30.13,ENE,66,3.0,4.0,84,0.00,,,0.00,Wunderground v.1.13,2013-02-02 03:18:00,
2013-02-01 21:22:00,-1.0,-4.7,30.13,NE,49,2.0,3.0,84,0.00,,,0.00,Wunderground v.1.13,2013-02-02 03:22:00,
2013-02-01 21:24:00,-0.9,-4.6,30.13,ENE,61,3.0,5.0,84,0.00,,,0.00,Wunderground v.1.13,2013-02-02 03:24:00,
2013-02-01 21:29:00,-0.9,-4.6,30.13,ENE,60,3.0,6.0,84,0.00,,,0.00,Wunderground v.1.13,2013-02-02 03:29:00,
2013-02-01 21:30:00,-0.9,-4.6,30.13,ENE,60,3.0,4.0,84,0.00,,,0.00,Wunderground v.1.13,2013-02-02 03:30:00,
2013-02-01 21:31:00,-0.9,-4.6,30.13,ENE,68,3.0,4.0,84,0.00,,,0.00,Wunderground v.1.13,2013-02-02 03:31:00,
2013-02-01 21:32:00,-0.9,-4.6,30.13,ENE,59,3.0,4.0,84,0.00,,,0.00,Wunderground v.1.13,2013-02-02 03:32:00,
2013-02-01 21:38:00,-0.8,-4.7,30.13,NE,55,3.0,5.0,83,0.00,,,0.00,Wunderground v.1.13,2013-02-02 03:38:00,
2013-02-01 21:39:00,-0.8,-4.5,30.13,NE,56,4.0,7.0,84,0.00,,,0.00,Wunderground v.1.13,2013-02-02 03:39:00,
2013-02-01 21:41:00,-0.8,-4.5,30.13,ENE,60,4.0,5.0,84,0.00,,,0.00,Wunderground v.1.13,2013-02-02 03:41:00,
2013-02-01 21:43:00,-0.8,-4.7,30.13,NE,47,4.0,6.0,83,0.00,,,0.00,Wunderground v.1.13,2013-02-02 03:43:00,
2013-02-01 21:46:00,-0.8,-4.5,30.13,ENE,59,4.0,5.0,84,0.00,,,0.00,Wunderground v.1.13,2013-02-02 03:46:00,
2013-02-01 21:47:00,-0.8,-4.5,30.13,NE,53,4.0,6.0,84,0.00,,,0.00,Wunderground v.1.13,2013-02-02 03:47:00,
2013-02-01 21:48:00,-0.8,-4.5,30.13,NE,47,4.0,6.0,84,0.00,,,0.00,Wunderground v.1.13,2013-02-02 03:48:00,
2013-02-01 21:52:00,-0.8,-4.5,30.13,NE,47,5.0,5.0,84,0.00,,,0.00,Wunderground v.1.13,2013-02-02 03:52:00,
2013-02-01 21:53:00,-0.8,-4.5,30.13,NE,53,5.0,6.0,84,0.00,,,0.00,Wunderground v.1.13,2013-02-02 03:53:00,
2013-02-01 21:58:00,-0.8,-4.7,30.13,ENE,60,5.0,6.0,83,0.00,,,0.00,Wunderground v.1.13,2013-02-02 03:58:00,
2013-02-01 22:02:00,-0.8,-4.7,30.12,ESE,107,5.0,5.0,83,0.00,,,0.00,Wunderground v.1.13,2013-02-02 04:02:00,
2013-02-01 22:04:00,-0.7,-4.6,30.12,NE,47,4.0,6.0,83,0.00,,,0.00,Wunderground v.1.13,2013-02-02 04:04:00,
2013-02-01 22:06:00,-0.7,-4.6,30.12,East,88,4.0,4.0,83,0.00,,,0.00,Wunderground v.1.13,2013-02-02 04:06:00,
2013-02-01 22:10:00,-0.7,-4.6,30.12,NE,56,3.0,3.0,83,0.00,,,0.00,Wunderground v.1.13,2013-02-02 04:10:00,
2013-02-01 22:11:00,-0.7,-4.6,30.12,ENE,69,3.0,3.0,83,0.00,,,0.00,Wunderground v.1.13,2013-02-02 04:11:00,
2013-02-01 22:17:00,-0.7,-4.6,30.12,ENE,59,3.0,6.0,83,0.00,,,0.00,Wunderground v.1.13,2013-02-02 04:17:00,
2013-02-01 22:18:00,-0.7,-4.6,30.12,ENE,58,4.0,6.0,83,0.00,,,0.00,Wunderground v.1.13,2013-02-02 04:18:00,
2013-02-01 22:24:00,-0.7,-4.6,30.12,NE,53,4.0,5.0,83,0.00,,,0.00,Wunderground v.1.13,2013-02-02 04:24:00,
2013-02-01 22:25:00,-0.7,-4.6,30.12,East,84,4.0,4.0,83,0.00,,,0.00,Wunderground v.1.13,2013-02-02 04:25:00,
2013-02-01 22:26:00,-0.7,-4.6,30.12,East,83,4.0,4.0,83,0.00,,,0.00,Wunderground v.1.13,2013-02-02 04:26:00,
2013-02-01 22:31:00,-0.7,-4.6,30.12,ENE,61,3.0,5.0,83,0.00,,,0.00,Wunderground v.1.13,2013-02-02 04:31:00,
2013-02-01 22:32:00,-0.7,-4.6,30.12,ENE,59,3.0,5.0,83,0.00,,,0.00,Wunderground v.1.13,2013-02-02 04:32:00,
2013-02-01 22:33:00,-0.7,-4.6,30.12,ENE,61,3.0,5.0,83,0.00,,,0.00,Wunderground v.1.13,2013-02-02 04:33:00,
2013-02-01 22:35:00,-0.7,-4.6,30.12,ENE,59,3.0,5.0,83,0.00,,,0.00,Wunderground v.1.13,2013-02-02 04:35:00,
2013-02-01 22:38:00,-0.7,-4.6,30.12,ENE,59,3.0,4.0,83,0.00,,,0.00,Wunderground v.1.13,2013-02-02 04:38:00,
2013-02-01 22:39:00,-0.7,-4.6,30.12,ENE,59,3.0,4.0,83,0.00,,,0.00,Wunderground v.1.13,2013-02-02 04:39:00,
2013-02-01 22:40:00,-0.7,-4.6,30.12,ENE,61,3.0,4.0,83,0.00,,,0.00,Wunderground v.1.13,2013-02-02 04:40:00,
2013-02-01 22:46:00,-0.7,-4.6,30.12,ENE,60,3.0,3.0,83,0.00,,,0.00,Wunderground v.1.13,2013-02-02 04:46:00,
2013-02-01 22:47:00,-0.7,-4.6,30.12,ENE,60,2.0,3.0,83,0.00,,,0.00,Wunderground v.1.13,2013-02-02 04:47:00,
2013-02-01 22:51:00,-0.7,-4.6,30.13,NE,55,2.0,2.0,83,0.00,,,0.00,Wunderground v.1.13,2013-02-02 04:51:00,
2013-02-01 22:52:00,-0.7,-4.6,30.13,NE,55,2.0,2.0,83,0.00,,,0.00,Wunderground v.1.13,2013-02-02 04:52:00,
2013-02-01 22:54:00,-0.7,-4.6,30.13,NE,55,2.0,2.0,83,0.00,,,0.00,Wunderground v.1.13,2013-02-02 04:54:00,
2013-02-01 22:55:00,-0.7,-4.6,30.13,NE,55,2.0,2.0,83,0.00,,,0.00,Wunderground v.1.13,2013-02-02 04:55:00,
2013-02-01 22:56:00,-0.7,-4.6,30.13,NE,55,2.0,2.0,83,0.00,,,0.00,Wunderground v.1.13,2013-02-02 04:56:00,
2013-02-01 23:00:00,-0.6,-4.5,30.13,NE,55,2.0,2.0,83,0.00,,,0.00,Wunderground v.1.13,2013-02-02 05:00:00,
2013-02-01 23:01:00,-0.6,-4.5,30.13,NE,55,2.0,2.0,83,0.00,,,0.00,Wunderground v.1.13,2013-02-02 05:01:00,
2013-02-01 23:04:00,-0.6,-4.5,30.12,NE,55,2.0,2.0,83,0.00,,,0.00,Wunderground v.1.13,2013-02-02 05:04:00,
2013-02-01 23:06:00,-0.6,-4.5,30.12,NE,55,2.0,2.0,83,0.00,,,0.00,Wunderground v.1.13,2013-02-02 05:06:00,
2013-02-01 23:08:00,-0.6,-4.5,30.12,NE,55,2.0,2.0,83,0.00,,,0.00,Wunderground v.1.13,2013-02-02 05:08:00,
2013-02-01 23:12:00,-0.6,-4.3,30.13,NE,55,2.0,5.0,84,0.00,,,0.00,Wunderground v.1.13,2013-02-02 05:12:00,
2013-02-01 23:13:00,-0.6,-4.3,30.12,NE,55,1.0,5.0,84,0.00,,,0.00,Wunderground v.1.13,2013-02-02 05:13:00,
2013-02-01 23:14:00,-0.7,-4.4,30.12,NE,55,1.0,5.0,84,0.00,,,0.00,Wunderground v.1.13,2013-02-02 05:14:00,
2013-02-01 23:18:00,-0.6,-4.5,30.12,North,10,2.0,4.0,83,0.00,,,0.00,Wunderground v.1.13,2013-02-02 05:18:00,
2013-02-01 23:21:00,-0.7,-4.6,30.12,NNE,15,2.0,2.0,83,0.00,,,0.00,Wunderground v.1.13,2013-02-02 05:21:00,
2013-02-01 23:24:00,-0.7,-4.6,30.12,NNE,15,2.0,3.0,83,0.00,,,0.00,Wunderground v.1.13,2013-02-02 05:24:00,
2013-02-01 23:25:00,-0.7,-4.6,30.12,NNE,15,2.0,2.0,83,0.00,,,0.00,Wunderground v.1.13,2013-02-02 05:25:00,
2013-02-01 23:29:00,-0.7,-4.6,30.12,NNE,21,2.0,3.0,83,0.00,,,0.00,Wunderground v.1.13,2013-02-02 05:29:00,
2013-02-01 23:30:00,-0.7,-4.6,30.12,NNE,21,2.0,3.0,83,0.00,,,0.00,Wunderground v.1.13,2013-02-02 05:30:00,
2013-02-01 23:31:00,-0.7,-4.6,30.13,NNE,21,2.0,3.0,83,0.00,,,0.00,Wunderground v.1.13,2013-02-02 05:31:00,
2013-02-01 23:37:00,-0.7,-4.6,30.13,NNE,21,1.0,2.0,83,0.00,,,0.00,Wunderground v.1.13,2013-02-02 05:37:00,
2013-02-01 23:39:00,-0.7,-4.6,30.13,NNE,22,1.0,3.0,83,0.00,,,0.00,Wunderground v.1.13,2013-02-02 05:39:00,
2013-02-01 23:40:00,-0.7,-4.6,30.13,NNE,22,1.0,1.0,83,0.00,,,0.00,Wunderground v.1.13,2013-02-02 05:40:00,
2013-02-01 23:43:00,-0.7,-4.6,30.13,NNE,15,2.0,4.0,83,0.00,,,0.00,Wunderground v.1.13,2013-02-02 05:43:00,
2013-02-01 23:45:00,-0.7,-4.6,30.13,North,360,2.0,2.0,83,0.00,,,0.00,Wunderground v.1.13,2013-02-02 05:45:00,
2013-02-01 23:46:00,-0.7,-4.6,30.13,North,360,2.0,2.0,83,0.00,,,0.00,Wunderground v.1.13,2013-02-02 05:46:00,
2013-02-01 23:49:00,-0.7,-4.6,30.13,North,5,2.0,2.0,83,0.00,,,0.00,Wunderground v.1.13,2013-02-02 05:49:00,
2013-02-01 23:50:00,-0.7,-4.6,30.13,North,360,2.0,2.0,83,0.00,,,0.00,Wunderground v.1.13,2013-02-02 05:50:00,
2013-02-01 23:51:00,-0.7,-4.6,30.13,North,5,2.0,2.0,83,0.00,,,0.00,Wunderground v.1.13,2013-02-02 05:51:00,
2013-02-01 23:52:00,-0.7,-4.6,30.13,North,5,2.0,2.0,83,0.00,,,0.00,Wunderground v.1.13,2013-02-02 05:52:00,
2013-02-01 23:55:00,-0.7,-4.6,30.13,North,9,2.0,2.0,83,0.00,,,0.00,Wunderground v.1.13,2013-02-02 05:55:00,
2013-02-01 23:57:00,-0.6,-4.3,30.13,North,9,2.0,2.0,84,0.00,,,0.00,Wunderground v.1.13,2013-02-02 05:57:00,
2013-02-01 23:59:00,-0.6,-4.5,30.13,North,9,2.0,3.0,83,0.00,,,0.00,Wunderground v.1.13,2013-02-02 05:59:00,